GFSNW_sfc_wetblb_015.txt.gz
Wetbulb
53.66 53.36 53.33 52.71 51.83 50.56 49.61 49.18 44.26 54.30 56.55 46.46 47.73 44.62 47.34 47.44 48.57 50.72 48.81 49.23 50.29 50.82 51.43 50.84 51.53 51.04 53.19 55.98 55.90 52.89 55.43 53.61 50.89 51.99 55.40 55.50 53.82 51.87 52.44 51.50 51.72 52.92 52.96 52.58
53.11 53.13 53.10 52.28 51.21 50.95 49.75 45.93 47.57 53.71 51.50 40.52 42.58 46.21 46.83 48.66 47.98 48.75 48.21 47.31 48.53 50.81 50.26 49.51 51.45 52.22 54.99 54.89 55.00 54.68 55.63 52.26 49.31 50.84 52.72 54.27 52.06 52.65 52.92 53.13 54.84 54.40 50.64 52.31
52.24 52.49 52.57 51.91 51.23 51.28 48.79 45.63 42.08 47.55 48.83 48.28 44.04 43.12 44.19 45.12 49.57 48.29 49.11 48.33 49.16 47.66 47.86 50.92 50.32 51.39 53.62 54.83 54.08 60.78 59.00 54.21 51.75 49.09 51.32 52.96 50.62 50.90 52.17 52.15 50.33 51.97 52.37 54.62
52.00 51.91 52.11 51.78 51.12 50.94 48.02 44.95 43.19 45.95 41.33 44.15 43.54 43.78 45.10 42.44 42.70 48.51 49.68 47.87 47.50 46.94 45.22 47.33 48.02 50.53 52.42 53.53 57.19 55.04 54.71 51.69 53.73 53.62 54.12 53.97 51.91 50.41 50.74 50.48 52.34 51.19 53.18 54.13
51.89 51.71 52.30 51.61 50.88 50.20 44.67 42.15 42.56 45.53 43.36 44.85 42.38 41.82 42.16 39.97 41.92 43.71 43.02 44.43 47.37 48.19 46.28 47.21 46.57 49.42 51.62 51.62 53.53 53.39 54.88 51.44 53.74 51.82 53.55 53.01 51.54 52.99 52.13 51.60 51.39 51.85 52.78 53.19
52.05 51.93 51.54 51.56 50.82 48.69 44.08 48.46 47.65 44.28 40.58 41.75 40.55 39.80 40.46 40.90 43.64 44.09 46.17 44.66 44.16 46.47 48.14 50.68 52.19 54.07 53.35 53.03 53.55 53.49 53.67 52.97 51.48 49.18 53.40 53.19 49.64 52.57 53.24 53.90 54.16 53.11 50.45 54.04
51.92 51.84 51.61 51.42 51.23 49.88 48.55 45.16 44.53 40.36 37.36 39.65 39.44 40.52 39.59 39.96 41.37 41.74 43.70 43.85 42.43 47.98 51.06 52.41 53.31 53.63 54.58 54.44 53.67 54.33 52.94 53.66 52.61 50.02 52.42 44.98 54.09 57.69 55.92 54.32 55.16 56.42 56.11 56.40
51.47 51.55 51.59 51.58 51.33 50.74 51.11 48.52 43.09 39.48 37.25 38.71 40.49 40.68 39.59 41.06 43.29 43.18 42.16 43.38 46.41 48.24 48.03 46.16 46.19 47.80 48.31 50.19 52.49 54.86 56.06 53.75 50.51 48.71 48.73 52.40 54.32 56.03 56.86 56.17 56.31 58.08 57.00 58.57
51.30 51.36 51.44 51.32 51.06 51.00 50.65 51.27 47.92 41.97 36.45 38.16 41.26 39.62 40.10 37.44 38.86 41.52 43.95 46.92 49.16 47.94 45.24 42.41 39.63 40.34 45.01 45.08 47.53 53.55 55.50 56.93 53.37 51.54 47.30 46.12 53.98 58.79 60.70 59.82 52.69 58.87 60.00 60.34
51.61 51.59 51.41 51.13 50.83 50.63 51.25 48.36 49.09 43.82 35.91 40.63 42.73 39.50 38.00 41.79 40.62 40.64 41.42 45.50 44.19 46.61 41.06 39.99 40.03 41.15 47.18 43.31 44.87 47.43 49.57 51.62 49.26 50.26 49.39 52.03 58.10 59.01 60.40 51.64 54.07 63.29 63.61 63.82
51.25 51.04 51.09 51.14 50.80 50.62 50.16 49.07 51.92 45.45 39.78 40.17 44.58 45.40 42.17 41.96 41.96 38.70 41.71 44.03 44.34 44.27 41.53 41.89 42.97 42.88 46.24 46.65 50.52 50.79 49.07 49.69 49.30 51.13 48.51 46.18 59.87 59.70 55.63 59.91 63.42 64.09 64.67 64.82
50.62 50.87 50.80 50.72 50.29 50.06 49.72 44.92 50.11 49.04 41.88 42.11 48.37 48.70 49.29 47.18 47.40 44.44 44.60 43.18 41.74 46.00 44.25 46.04 45.42 45.20 49.52 49.15 44.70 54.46 49.81 53.46 51.48 52.92 52.47 60.20 61.10 60.80 62.21 63.00 64.06 64.64 65.33 66.04
50.66 49.92 49.84 49.75 50.01 50.02 49.56 46.85 49.23 46.72 41.97 42.18 44.69 44.76 50.64 52.05 50.61 50.52 42.50 45.67 47.18 46.77 48.30 44.65 45.77 44.02 49.34 48.12 49.31 53.55 53.19 58.66 55.80 57.16 58.37 58.72 60.02 61.94 62.82 64.02 63.65 65.88 67.12 66.54
49.68 49.45 49.34 49.36 49.98 49.61 49.17 46.77 49.57 46.45 42.64 36.81 42.72 50.90 49.13 52.06 52.45 50.76 49.81 46.98 51.02 49.37 46.79 44.10 45.47 44.34 51.53 48.57 50.42 54.75 50.44 54.24 57.78 57.22 58.20 59.01 59.51 60.60 61.80 62.32 63.37 63.83 64.14 64.01
49.40 49.33 49.40 49.96 49.32 47.89 49.07 49.44 49.17 49.50 41.56 36.98 41.59 48.19 51.94 52.55 51.15 50.48 50.06 48.75 47.68 44.76 43.34 42.54 43.81 49.34 49.53 52.25 53.04 46.02 50.70 50.82 52.70 53.04 58.74 58.89 57.27 58.90 60.59 59.25 59.62 60.87 61.41 60.90
49.20 49.51 49.64 49.44 49.51 49.30 48.16 43.86 48.59 49.36 49.25 41.15 37.58 48.50 49.67 52.50 51.46 50.87 50.16 49.45 47.60 47.18 42.81 44.22 46.29 51.10 49.44 47.64 45.21 49.33 52.84 55.55 58.56 56.83 59.93 57.87 57.67 57.42 57.52 56.48 57.77 58.29 58.96 59.44
49.10 48.95 48.95 49.21 49.67 49.35 45.92 43.22 46.24 50.13 49.93 39.91 37.09 40.89 48.92 52.83 52.31 51.21 50.82 51.34 48.24 46.52 43.28 45.19 46.29 47.00 45.43 46.51 43.76 50.02 52.25 55.76 56.99 58.52 57.14 53.86 55.42 54.17 56.52 56.78 57.28 56.74 58.18 59.48
49.55 49.66 49.69 50.01 50.25 49.40 45.90 49.20 49.54 49.64 44.00 41.81 37.32 39.69 46.42 52.39 48.18 47.01 51.48 48.34 47.91 46.25 46.92 46.68 44.91 46.16 48.68 43.35 48.12 49.99 51.71 53.60 53.42 55.10 56.58 56.29 55.32 54.72 55.85 55.36 55.47 55.70 56.37 57.03
50.92 50.79 50.36 50.36 48.26 45.40 50.59 49.96 50.12 50.25 43.89 36.91 36.22 35.47 38.86 51.45 46.73 49.05 49.16 49.53 43.33 48.57 43.81 42.66 44.39 43.85 41.51 46.22 47.08 48.00 49.56 49.76 50.58 52.82 52.38 52.13 51.55 51.53 52.65 53.80 54.46 52.97 55.89 58.22
51.12 50.61 46.15 43.84 49.65 49.53 52.03 48.50 44.41 42.89 43.55 42.40 39.01 46.12 43.65 47.70 48.17 46.67 46.15 46.73 42.99 38.95 42.90 48.24 43.83 42.40 47.94 49.71 50.18 50.92 51.11 50.91 50.92 48.34 48.80 49.98 51.11 52.09 51.78 52.63 54.93 56.26 55.56 56.58
50.89 47.70 46.66 50.95 53.40 51.04 47.17 42.32 41.10 42.76 40.05 44.53 46.19 47.13 45.96 49.88 44.99 44.26 47.75 45.02 45.05 39.47 44.56 44.45 41.16 38.57 46.68 50.72 51.44 52.59 52.84 52.84 52.58 52.99 53.05 52.32 52.55 52.84 53.39 53.73 55.01 56.08 57.80 56.60
48.03 47.60 49.24 50.60 48.30 45.01 40.87 40.02 42.70 42.17 40.41 45.49 46.42 47.64 49.23 49.38 50.52 47.33 47.05 44.48 44.15 39.47 47.36 43.29 37.23 43.70 49.08 50.68 51.16 52.53 53.72 53.29 53.75 53.55 51.66 52.48 54.10 55.22 55.13 56.17 55.88 56.81 58.48 58.91
51.24 48.20 45.86 45.60 45.87 37.80 37.10 36.53 39.09 40.77 46.45 47.85 48.97 47.36 50.75 51.75 50.55 48.91 47.83 42.66 42.96 50.16 43.69 38.80 41.76 46.99 50.49 52.25 52.25 52.45 54.30 54.40 54.33 54.23 55.04 54.65 55.12 55.55 55.52 56.01 58.10 58.60 58.46 59.25
45.02 42.96 36.67 39.06 38.30 41.68 44.08 43.73 44.66 49.03 48.86 49.59 49.18 48.17 48.50 51.20 48.17 48.09 42.73 47.04 47.19 41.58 37.61 39.45 45.38 48.31 49.72 52.51 54.36 53.08 53.13 54.32 54.37 54.43 54.62 54.12 54.08 54.99 56.89 58.00 58.02 57.86 58.31 58.76
44.59 44.30 35.30 40.49 43.98 47.02 46.86 47.65 48.03 50.62 52.04 51.23 49.15 48.58 50.34 48.53 47.19 48.13 47.05 43.54 39.42 39.39 38.96 44.51 48.78 50.03 51.77 52.21 53.01 54.16 54.13 54.00 54.00 54.39 54.74 54.89 55.34 55.82 56.53 57.52 58.17 58.94 59.31 58.99
49.21 46.06 42.48 45.97 44.70 45.33 47.11 48.34 48.91 52.48 52.37 52.35 50.39 47.77 45.99 44.88 44.55 42.12 38.96 38.12 34.81 39.14 44.60 49.40 52.07 50.63 53.53 54.63 55.09 55.12 55.77 55.49 55.44 55.73 55.28 54.93 55.41 55.92 56.24 56.94 56.95 57.21 58.82 59.31
44.91 44.12 48.29 47.13 45.94 45.81 48.46 49.74 50.27 53.68 51.34 47.94 48.84 43.93 42.17 47.17 42.53 40.46 41.32 37.58 40.40 45.85 47.35 50.87 53.64 53.52 54.94 55.30 55.61 56.02 55.74 55.85 56.34 55.96 56.42 56.64 57.00 56.98 56.34 55.45 56.36 56.97 57.51 58.17

GFSNW_sfc_wetblb_021.txt.gz
Wetbulb
53.70 53.58 53.27 52.71 51.94 50.77 48.62 44.41 37.25 49.88 51.38 40.36 43.83 39.85 42.85 44.79 45.03 47.70 46.32 46.73 45.16 43.72 44.69 42.91 43.35 44.05 46.92 53.57 53.82 49.64 50.71 46.88 43.66 46.30 51.45 53.01 50.61 47.08 44.60 41.84 37.50 41.19 41.84 43.57
53.44 53.48 53.02 52.38 51.48 51.41 46.49 39.82 40.90 48.86 48.27 35.03 38.04 42.26 43.07 44.58 43.27 43.36 43.39 43.08 44.91 46.62 44.26 41.40 44.63 45.98 50.17 51.00 49.79 50.89 51.32 47.13 41.29 43.48 47.32 50.39 48.67 49.36 47.51 46.53 42.53 40.45 38.89 43.79
53.13 52.98 52.69 52.06 51.49 51.60 47.23 41.55 35.14 41.91 44.90 44.27 40.28 38.77 38.58 38.55 44.86 43.68 44.88 43.82 44.83 43.70 43.31 45.67 43.28 44.82 49.51 50.84 49.92 59.38 55.81 48.79 45.46 42.12 44.62 47.22 47.22 49.06 49.36 46.53 42.70 42.70 43.42 44.18
52.81 52.76 52.54 52.08 51.43 51.00 47.38 43.00 37.39 40.45 34.55 38.01 38.05 39.41 38.25 37.05 37.15 42.30 42.51 41.37 41.22 39.80 37.26 40.20 41.37 44.09 43.99 47.12 51.35 51.67 47.37 46.25 47.80 48.14 49.26 49.92 49.16 49.98 49.47 46.69 46.33 43.40 44.58 45.09
52.31 52.26 52.25 52.28 51.69 50.88 45.33 39.21 37.86 40.21 37.44 38.61 37.67 37.94 37.08 36.91 38.18 39.41 38.34 37.24 40.80 40.27 38.63 39.97 36.77 39.35 39.91 40.18 45.36 43.23 45.04 44.95 47.83 46.79 49.43 49.15 47.70 50.44 51.19 49.59 49.19 48.53 48.52 47.64
52.04 52.14 52.23 51.95 51.46 49.50 44.63 45.13 46.22 41.08 36.85 35.78 35.27 35.73 37.21 37.61 39.59 40.92 41.88 40.47 39.18 38.03 40.81 43.70 43.35 43.75 43.60 43.08 42.27 42.10 42.42 41.82 43.60 41.16 47.70 47.59 44.75 48.04 49.86 50.77 51.23 49.96 46.23 49.37
51.83 51.89 51.92 52.15 51.91 50.34 47.51 46.78 44.97 38.53 32.09 34.20 34.59 36.59 37.83 37.68 38.77 37.70 40.95 42.21 39.48 42.34 46.22 46.26 45.17 45.46 45.38 46.10 46.53 47.44 43.23 42.74 44.73 41.77 44.28 38.95 47.01 52.93 53.30 52.10 53.05 51.88 50.73 51.29
51.82 51.83 51.86 51.73 51.51 51.56 47.78 47.51 44.49 39.48 33.29 35.90 35.52 36.79 37.72 39.17 39.98 39.00 40.04 42.14 43.64 46.01 43.81 38.93 36.75 39.63 41.78 43.98 46.95 46.91 48.29 44.41 42.30 39.80 41.62 44.00 48.74 50.68 50.85 50.00 50.05 54.11 54.47 55.59
51.71 51.68 51.91 51.50 51.19 51.99 49.96 48.72 49.00 42.43 34.19 33.60 38.80 36.11 37.60 35.20 36.35 37.79 39.93 43.65 46.50 45.62 41.40 37.94 32.90 33.21 37.68 39.31 42.32 48.20 48.15 47.81 45.43 40.71 38.50 38.19 45.20 52.79 55.48 57.05 47.56 59.07 59.24 58.45
51.78 51.81 51.75 51.94 51.86 51.92 49.98 48.39 50.05 43.28 35.64 37.95 38.96 36.21 36.74 39.93 38.58 36.41 38.78 40.30 39.18 43.71 38.90 34.57 33.33 32.69 40.07 36.38 39.08 41.75 43.31 46.09 43.96 42.46 39.92 43.53 50.84 53.24 58.27 47.13 48.25 59.05 59.99 59.43
51.59 51.68 51.60 51.21 51.23 51.39 50.53 47.11 50.98 45.53 39.73 40.07 41.93 42.03 39.23 39.90 39.01 34.51 40.05 38.71 38.73 38.01 35.50 34.66 35.22 33.99 37.87 39.82 43.11 43.22 42.92 39.02 41.48 43.92 39.93 38.83 57.09 56.14 51.59 53.45 58.53 60.64 59.86 59.62
51.24 51.06 50.98 50.75 50.63 50.54 50.38 44.75 50.96 49.92 42.71 41.25 45.12 44.92 46.00 44.15 43.83 41.14 41.05 39.44 38.84 40.98 39.01 39.76 40.42 37.65 40.47 41.73 39.28 46.90 41.67 45.80 45.12 47.09 49.46 55.72 59.40 58.75 59.59 62.53 61.84 62.43 62.99 63.71
51.13 51.03 51.01 50.73 50.71 50.75 50.02 47.80 48.84 47.58 41.47 39.44 40.78 41.17 46.34 47.98 46.82 47.47 38.22 41.08 43.32 42.85 45.70 41.96 41.84 39.06 44.02 38.85 42.41 45.74 47.77 51.94 48.31 49.61 53.17 55.80 58.06 59.76 62.55 62.07 61.06 61.42 62.87 63.11
50.97 50.79 50.64 50.68 50.76 51.00 49.38 46.72 49.26 45.74 41.94 35.23 37.47 47.08 44.72 49.36 48.55 47.92 46.36 44.27 45.17 45.47 43.80 40.48 40.77 39.99 46.94 43.37 44.16 45.15 48.22 49.68 49.40 50.25 54.31 54.96 59.03 60.50 60.88 60.90 60.64 60.32 60.16 59.73
51.42 51.16 50.87 50.53 50.34 50.68 49.61 48.27 48.18 48.03 41.18 35.68 36.76 42.41 46.82 48.68 47.59 47.26 47.92 45.22 44.24 42.27 38.40 41.36 40.99 44.94 45.18 46.83 46.99 45.95 49.13 49.53 48.45 48.82 51.52 52.06 53.38 57.78 59.80 58.57 58.34 58.37 57.58 56.96
51.70 51.27 51.21 51.31 50.76 50.41 47.35 42.32 48.78 49.99 47.77 39.78 34.28 43.62 44.31 47.68 49.46 49.36 46.72 46.57 45.04 43.45 43.24 42.64 44.32 47.68 45.54 41.60 41.92 47.59 50.02 52.43 54.03 53.34 54.00 53.09 53.51 53.63 55.61 55.14 56.07 57.60 57.22 56.85
51.77 51.92 51.92 51.85 51.51 48.40 44.17 41.70 46.74 49.01 48.42 40.22 36.03 36.04 45.78 49.74 50.36 46.47 46.63 46.65 45.03 46.80 44.79 42.88 43.04 44.63 47.12 44.63 41.02 48.97 52.10 54.48 54.88 54.99 54.46 52.29 53.14 51.12 53.99 56.28 56.80 57.14 57.74 57.41
51.59 51.72 51.69 51.77 51.65 49.99 45.40 47.39 48.71 48.88 44.85 42.40 35.28 35.72 42.42 49.30 45.52 43.78 48.39 44.42 46.57 45.66 44.59 44.70 43.59 45.26 46.27 42.76 47.21 49.91 51.71 53.83 53.97 53.72 54.77 54.42 55.25 55.23 54.72 55.03 54.62 53.75 53.90 55.09
51.54 51.81 51.66 50.39 48.13 45.11 47.71 51.71 49.80 49.74 44.41 37.48 38.06 34.50 36.14 47.59 45.44 47.01 46.45 46.52 41.44 46.53 43.36 42.85 43.12 43.05 40.97 45.51 47.94 48.95 51.17 51.17 50.60 51.85 52.23 51.96 51.04 51.38 52.96 54.17 54.73 53.23 51.94 54.14
51.58 50.60 48.49 44.70 48.96 53.21 51.63 47.95 42.92 41.71 42.19 40.58 35.22 39.50 35.26 44.19 45.36 44.67 44.51 45.84 42.46 38.01 40.63 45.13 40.63 41.03 46.70 49.23 50.13 50.35 50.71 52.11 52.65 50.25 49.45 49.77 48.97 49.46 50.24 50.23 52.80 54.54 53.60 53.41
51.67 47.53 46.06 49.18 53.35 49.29 45.22 40.22 38.74 39.43 37.38 39.76 39.29 41.60 37.88 48.26 42.13 42.68 46.06 42.72 41.38 33.12 39.02 40.10 37.24 38.64 44.34 49.25 48.88 50.72 52.11 52.07 52.35 52.73 52.73 52.70 50.15 49.98 50.75 50.79 53.03 55.30 55.57 55.80
47.68 46.22 49.14 50.15 49.24 46.92 41.44 39.53 38.92 36.03 34.76 43.14 43.52 45.75 47.64 47.74 49.21 43.72 45.35 40.75 40.99 37.28 46.04 39.26 35.01 41.78 47.71 48.85 48.87 49.60 50.95 51.32 51.55 53.15 52.31 53.60 54.15 54.28 54.21 54.55 54.99 55.50 56.76 57.11
53.07 48.54 47.36 46.66 45.51 38.48 38.76 36.78 38.71 39.19 44.25 46.15 46.78 45.44 47.46 48.29 46.70 44.37 44.26 39.95 40.48 46.69 39.94 34.83 38.40 44.09 46.88 49.78 51.09 50.71 52.23 52.57 52.51 52.94 54.32 54.22 54.76 56.13 55.70 55.02 56.10 56.55 56.38 57.28
48.10 45.54 37.06 42.37 40.51 41.58 42.02 42.08 43.42 46.44 47.10 47.58 48.31 46.14 46.67 47.44 44.84 44.54 41.75 44.57 43.49 37.69 34.01 35.04 44.42 47.89 49.79 51.04 51.79 51.68 51.73 52.94 52.92 53.61 54.39 54.41 55.03 55.21 55.96 56.51 56.45 56.40 55.99 57.32
47.97 46.64 36.23 42.82 46.04 47.46 47.29 49.19 48.65 49.65 50.68 50.51 49.63 48.36 47.56 46.24 44.82 44.49 42.27 38.70 35.34 36.52 38.25 43.00 47.33 49.64 50.66 51.07 52.07 52.28 52.01 51.44 51.83 53.29 53.70 53.76 54.55 54.75 54.93 55.70 56.16 56.91 57.01 56.95
50.46 48.00 44.35 47.28 45.94 45.72 47.31 48.30 47.51 50.68 50.52 50.33 48.90 46.09 42.92 41.46 41.97 38.69 36.47 36.33 33.67 37.99 44.27 47.64 49.39 50.08 51.01 51.64 52.15 52.94 53.67 53.53 52.07 52.12 53.09 55.05 55.04 54.06 53.56 55.05 55.16 56.43 57.26 56.77
47.02 45.17 49.75 48.34 46.96 46.68 48.53 49.72 49.18 52.45 49.17 43.84 45.72 41.70 40.58 44.48 38.46 36.43 39.17 36.88 41.11 44.71 47.19 49.37 50.28 50.55 51.71 52.73 52.93 54.01 53.95 53.30 52.08 54.02 53.65 53.54 53.34 53.03 54.59 52.35 54.17 53.63 55.45 56.46

GFSNW_sfc_wetblb_024.txt.gz
Wetbulb
53.23 53.34 53.33 52.66 51.96 50.50 46.09 38.37 32.01 43.77 47.33 32.99 33.60 35.14 37.33 42.55 42.42 44.98 42.84 42.77 41.09 39.24 40.44 38.87 39.94 40.84 44.18 49.42 48.25 43.46 46.23 43.76 40.98 43.46 48.00 50.77 49.58 46.05 42.33 40.44 35.69 38.99 41.57 41.94
53.21 53.25 52.67 52.08 51.11 50.50 42.49 35.73 34.95 43.21 40.95 28.28 29.76 35.40 38.73 40.53 40.30 40.18 40.62 39.70 40.89 41.38 38.25 35.99 40.87 43.00 48.75 46.32 46.24 43.33 46.42 40.84 38.57 38.49 42.48 45.32 44.81 47.54 47.04 39.02 38.25 40.09 37.09 39.40
53.07 53.11 52.40 51.69 51.21 50.72 42.81 36.16 30.74 34.04 36.39 36.63 34.28 33.30 35.86 35.55 41.86 41.23 41.04 39.86 41.51 39.32 37.19 38.73 37.71 40.21 44.46 45.50 45.93 51.41 45.79 41.95 41.49 40.48 42.63 43.96 42.29 46.60 46.76 45.06 42.30 41.12 41.89 41.21
52.97 53.03 52.40 51.80 51.08 50.78 44.90 37.84 32.08 34.37 29.44 32.60 35.26 35.78 35.91 34.47 34.28 39.85 39.93 36.84 39.07 36.97 33.57 36.64 37.28 40.59 40.75 43.65 47.41 43.67 40.22 33.92 39.25 43.06 46.03 47.38 46.53 46.52 47.24 44.77 45.79 42.88 45.07 41.26
52.91 53.03 52.45 51.88 51.36 50.47 44.25 37.61 36.72 35.84 35.89 34.24 32.65 34.77 34.36 34.56 35.89 36.69 35.82 35.54 37.84 36.95 33.14 35.76 34.68 38.04 35.90 36.68 40.99 39.05 39.11 34.59 38.51 41.22 47.14 47.32 45.88 47.80 48.44 47.78 47.50 46.16 43.72 42.41
52.93 52.93 52.63 52.11 51.36 48.59 42.06 44.41 44.48 40.12 35.46 32.11 29.20 30.05 32.49 33.65 36.85 39.25 40.54 39.31 37.30 35.56 37.13 40.40 40.24 40.70 40.64 39.43 37.58 37.25 36.11 35.13 35.45 34.29 44.01 45.80 43.07 46.97 47.29 47.76 48.49 47.42 43.50 45.89
52.25 52.42 52.43 52.21 51.79 49.32 44.78 44.11 43.21 35.56 32.84 33.74 32.28 33.52 35.50 35.34 36.94 35.58 38.48 38.70 35.66 39.23 44.21 43.54 41.21 41.07 39.86 40.41 40.53 42.19 38.50 37.74 35.73 35.01 38.69 36.80 45.32 50.48 50.40 47.31 49.27 49.42 48.51 49.31
52.39 52.12 52.08 52.05 51.73 51.12 46.69 46.55 43.09 38.55 32.37 34.54 34.51 34.31 35.03 35.99 36.67 35.01 37.44 39.59 39.63 41.93 40.05 34.53 31.84 33.46 35.28 39.57 41.56 42.18 43.69 40.79 37.09 33.77 35.28 41.57 46.79 48.45 48.43 45.85 46.68 51.48 49.11 50.21
52.04 52.00 51.91 51.83 52.38 51.84 47.27 45.35 45.39 42.69 35.61 32.06 37.21 35.00 35.12 31.52 30.98 33.93 37.02 41.02 41.71 40.07 36.89 35.28 27.67 28.15 33.83 36.25 41.62 45.73 45.16 44.57 40.52 38.99 36.26 35.47 43.43 50.29 53.66 52.45 43.90 56.58 56.09 55.44
52.08 52.11 51.90 51.71 51.49 51.42 45.58 43.17 45.31 42.06 35.55 38.38 37.51 33.40 32.89 34.93 32.42 31.34 34.17 36.95 36.50 39.29 34.11 34.91 28.81 28.85 36.43 33.42 36.45 39.34 42.08 41.81 38.04 38.78 39.08 40.53 47.25 50.84 55.09 45.64 45.84 56.55 56.94 56.32
51.78 51.67 51.59 51.57 51.19 50.91 45.97 42.96 46.44 43.08 39.34 38.60 40.90 40.13 37.20 36.88 34.71 33.34 34.41 36.32 35.40 33.63 33.71 34.23 32.02 30.86 32.97 34.22 40.62 42.05 40.86 40.60 40.13 41.10 38.88 36.92 52.69 54.09 47.98 50.99 56.71 57.58 58.81 56.60
51.40 51.24 51.22 51.10 51.16 50.84 49.73 42.81 45.49 46.69 42.10 38.17 43.63 43.34 43.77 42.16 40.99 36.97 35.23 36.47 37.62 38.96 34.45 34.48 36.82 34.81 36.26 34.93 34.90 45.59 40.05 44.36 43.20 43.68 45.31 49.85 55.26 55.79 59.71 61.11 59.91 59.90 60.79 61.71
51.40 51.44 51.49 51.22 51.09 51.00 49.69 43.47 44.53 45.54 41.33 39.67 38.24 37.37 42.10 44.07 43.53 45.11 36.59 38.31 40.50 40.44 43.22 37.07 36.89 33.56 40.89 35.63 39.21 43.29 46.72 50.42 46.08 46.91 50.89 51.72 51.78 53.75 58.65 59.19 58.23 59.21 60.20 60.07
51.50 51.71 51.53 51.53 51.32 50.94 50.32 42.54 45.86 45.05 41.42 34.63 35.63 42.64 39.77 44.39 42.95 43.66 43.48 41.59 43.32 42.70 42.44 35.89 33.96 34.13 43.04 39.88 41.89 43.80 46.80 49.01 48.17 48.04 50.62 52.53 52.09 52.67 55.86 57.75 58.00 57.41 57.22 57.33
51.82 51.69 52.03 52.13 51.67 51.53 48.08 45.17 45.20 47.25 41.36 35.30 36.56 40.99 42.12 43.14 45.20 43.50 43.84 42.23 40.51 38.32 37.00 36.84 36.63 42.06 41.94 44.98 44.88 44.94 48.34 47.59 45.68 46.94 51.25 48.40 50.90 53.62 57.80 55.22 55.12 55.58 55.70 55.19
51.72 51.84 51.70 51.87 51.89 51.72 42.81 40.11 47.46 48.95 46.98 39.37 34.17 38.48 40.26 43.33 46.21 44.77 42.62 42.56 41.38 40.73 38.60 39.02 42.19 45.92 43.92 39.81 40.98 46.55 49.30 51.07 51.44 51.66 53.31 52.25 54.05 53.98 54.36 53.86 55.01 56.13 55.44 55.00
51.68 51.79 51.75 51.98 51.70 48.60 42.10 40.02 45.13 48.98 46.66 38.73 35.48 34.86 39.77 46.25 45.49 43.95 41.61 43.59 40.94 42.11 41.80 41.34 42.52 43.41 44.98 43.20 39.84 46.36 50.66 54.29 53.94 55.07 54.73 52.22 53.24 52.07 54.19 53.92 54.60 56.24 56.89 57.15
51.75 51.68 51.73 51.78 51.57 50.60 46.22 47.58 49.01 48.72 43.17 42.15 34.96 34.56 38.27 47.87 43.54 42.41 45.45 41.27 44.78 44.25 43.06 43.72 42.55 44.18 44.94 40.80 45.42 49.01 52.23 52.57 53.47 54.17 54.67 54.32 54.59 53.93 54.02 54.71 54.31 53.42 53.80 55.12
51.80 52.04 52.07 49.28 47.18 44.44 46.09 51.33 50.07 48.91 43.89 37.28 36.92 34.67 33.73 45.34 44.76 45.71 45.85 45.34 40.43 45.73 41.67 42.56 43.01 42.09 40.39 45.42 47.29 48.84 50.59 50.41 50.33 51.52 51.53 51.88 51.17 51.35 52.67 53.60 53.46 52.11 51.65 52.48
51.96 48.46 44.89 41.58 46.26 52.86 51.79 47.16 42.53 41.33 41.69 40.32 33.57 38.52 35.65 40.96 44.66 42.95 42.84 45.03 41.06 37.78 39.94 43.75 39.93 40.42 45.64 47.95 49.80 50.90 51.27 51.46 51.95 48.81 47.92 49.08 49.24 49.55 50.31 51.21 53.67 54.53 54.50 53.48
45.32 41.60 40.63 45.46 52.98 48.25 45.06 39.14 35.27 36.90 34.66 36.34 34.90 37.58 37.27 45.49 40.95 39.58 44.86 40.24 39.24 33.25 38.26 38.88 37.00 38.61 44.27 48.28 49.13 50.79 52.16 52.40 52.37 52.46 52.15 50.88 50.43 50.81 51.64 52.60 53.97 54.99 55.44 55.27
45.38 45.66 47.05 45.39 44.61 43.79 41.65 38.41 36.02 33.06 34.19 41.51 41.09 42.28 42.01 45.23 47.84 42.02 42.67 37.32 37.91 36.11 44.78 37.84 34.11 41.50 46.17 47.68 48.38 49.51 50.69 51.81 52.16 52.92 52.70 53.86 54.42 53.70 53.89 54.49 54.49 55.24 56.38 56.93
47.09 44.22 44.69 41.86 40.40 36.93 38.21 35.02 37.14 39.45 43.41 44.91 45.72 44.95 45.61 46.43 45.57 42.72 42.83 39.29 39.62 45.75 36.63 32.85 37.37 44.31 46.84 48.51 50.34 50.49 51.77 52.28 52.54 52.97 54.18 54.46 54.94 55.38 54.71 54.26 54.61 55.49 55.64 56.43
43.35 40.96 35.17 38.50 38.13 40.40 41.32 42.34 43.43 46.33 46.41 47.14 47.39 45.73 45.79 46.42 44.49 45.09 40.76 41.61 41.80 36.55 33.74 37.21 45.08 47.97 49.13 50.05 51.52 51.38 51.42 52.63 52.68 53.28 53.97 53.80 53.75 54.14 54.43 54.89 55.50 55.06 54.79 55.58
42.67 41.14 32.80 38.09 43.01 44.99 46.68 48.21 47.12 48.42 48.21 46.97 46.32 45.86 44.40 42.97 41.88 41.62 41.26 37.98 33.92 34.60 35.52 43.04 47.25 49.25 49.58 49.71 50.50 50.43 49.86 49.80 49.82 51.40 52.07 52.35 52.79 53.01 53.98 55.03 55.45 56.38 55.10 53.94
45.35 44.38 42.15 44.89 43.36 43.86 46.44 47.13 46.42 49.23 48.35 46.56 45.03 42.67 41.39 40.65 40.14 38.10 36.26 35.64 34.16 39.68 44.21 46.91 48.72 49.20 49.23 50.05 51.12 50.99 50.73 50.40 50.46 50.21 49.53 50.28 50.71 49.47 49.53 51.47 52.24 54.00 53.48 52.47
44.49 42.07 46.06 44.43 44.82 44.07 45.95 46.65 46.77 49.84 47.15 42.93 42.82 40.55 40.17 43.44 40.17 39.68 40.65 38.40 41.97 44.97 46.51 47.81 48.27 49.00 49.82 50.94 50.34 51.27 50.13 50.24 47.67 47.52 47.30 46.28 46.92 47.24 46.80 46.03 49.31 50.38 52.23 50.50

GFSNW_sfc_wetblb_027.txt.gz
Wetbulb
53.16 53.26 52.87 52.40 51.53 50.41 44.87 35.81 30.16 41.76 43.05 31.44 30.04 29.82 34.38 41.06 40.68 42.74 40.38 40.31 38.67 37.13 38.57 36.44 36.55 37.80 41.72 46.45 45.98 40.72 42.64 35.52 39.69 42.88 45.58 48.91 47.60 45.79 40.35 36.58 35.54 36.70 39.88 39.07
53.06 53.10 52.52 52.05 51.02 50.17 41.18 33.71 32.27 41.79 38.92 28.72 29.60 34.55 37.11 40.02 38.37 37.90 38.40 37.82 38.97 40.33 36.84 33.88 39.00 40.72 45.50 45.87 43.34 42.04 42.81 35.66 32.90 35.70 39.03 41.88 42.40 45.27 45.86 43.04 37.78 40.56 36.58 37.91
53.08 53.16 52.54 51.85 51.06 50.52 43.08 36.69 30.57 33.26 34.83 34.79 33.34 31.19 33.66 34.51 40.60 39.37 39.49 38.17 40.12 37.69 35.78 37.66 36.47 38.81 43.85 44.50 44.40 49.37 42.19 34.25 34.46 34.34 36.73 40.93 39.87 43.79 45.62 43.64 40.13 41.65 41.58 40.26
53.19 53.27 52.56 52.01 51.05 50.36 43.54 39.97 32.53 31.61 28.85 30.98 32.16 32.97 33.48 33.96 33.58 38.67 38.56 35.24 36.62 35.41 30.54 34.81 34.83 38.65 39.33 41.62 45.05 41.38 37.74 31.93 34.85 38.16 41.46 43.03 43.37 42.95 45.03 42.43 44.69 42.11 43.91 40.61
52.78 52.72 52.56 52.33 51.35 49.86 43.23 37.77 36.43 38.38 34.59 36.03 31.35 31.50 32.36 33.37 33.72 34.85 35.16 34.79 35.77 34.95 31.43 32.88 31.90 34.71 34.03 35.22 39.06 36.77 36.25 33.55 35.16 36.22 42.56 43.66 42.97 44.88 45.59 45.79 46.04 44.43 44.81 41.10
52.58 52.82 52.81 52.23 51.21 47.78 42.33 43.75 43.00 39.36 36.02 34.43 32.06 30.71 30.74 31.87 35.20 37.64 38.92 36.55 34.72 34.00 35.57 37.99 38.05 38.33 37.42 37.36 35.28 33.84 34.06 33.83 32.78 30.42 38.89 40.00 38.62 44.07 45.25 45.93 46.83 46.23 42.70 45.03
52.28 52.34 52.81 52.52 51.69 48.43 44.78 44.97 43.25 36.20 31.44 33.93 33.09 33.54 34.06 33.18 34.58 33.65 37.37 37.57 35.90 38.34 41.50 41.40 38.70 37.12 37.08 38.33 37.51 39.10 33.95 33.22 33.56 30.91 34.23 31.45 43.15 48.04 48.87 47.13 47.66 46.69 45.29 47.03
52.36 52.28 52.29 52.47 52.04 50.93 43.29 46.22 43.41 38.60 32.80 34.51 34.03 34.14 34.49 34.78 34.69 33.39 33.93 37.25 39.27 39.90 37.35 32.79 30.20 30.42 31.51 34.81 38.48 37.67 39.13 36.49 32.25 30.69 31.06 38.09 44.22 46.69 46.04 44.88 44.19 48.46 48.23 48.57
51.76 52.06 52.13 51.99 52.08 51.40 44.34 42.71 45.48 41.96 35.31 33.41 36.69 33.21 34.19 31.00 32.22 33.29 35.07 38.76 38.93 37.32 33.41 31.80 26.10 25.79 30.36 29.60 36.57 39.77 38.74 39.16 37.65 33.73 30.48 31.58 40.00 49.75 53.23 51.11 43.56 49.92 50.04 49.42
51.73 51.74 51.79 51.93 51.83 51.41 45.30 41.89 43.40 42.78 36.55 36.42 36.26 33.49 31.31 34.75 32.68 31.09 32.24 34.16 35.44 37.01 30.68 30.20 28.53 27.05 34.10 29.92 30.98 32.40 34.47 35.39 33.60 34.93 34.22 38.33 47.19 52.76 55.02 41.32 44.44 54.70 53.08 51.25
51.46 51.58 51.78 51.70 51.49 51.34 46.91 43.21 45.05 42.91 38.98 38.62 39.90 40.06 37.08 36.75 35.79 31.75 32.31 32.69 32.87 31.10 30.64 30.68 31.94 29.65 32.54 30.64 35.56 34.68 36.40 37.12 35.36 36.11 35.73 32.48 52.19 52.20 48.48 51.47 56.23 55.81 55.00 54.84
51.75 51.83 51.87 51.67 51.48 51.37 50.07 42.06 47.02 47.54 41.81 39.75 41.85 42.35 42.32 40.91 40.09 36.66 36.51 33.19 33.57 34.52 32.08 33.45 33.60 32.82 34.59 31.44 30.37 39.16 34.89 40.67 39.13 40.77 41.15 48.57 51.40 53.55 54.05 54.79 55.87 58.02 57.47 60.03
52.16 51.73 51.79 52.08 52.18 51.64 50.18 45.90 43.41 43.86 40.43 39.67 38.92 37.52 42.18 43.52 43.42 44.51 36.27 37.58 38.09 37.03 42.02 38.13 36.65 33.51 36.43 32.51 34.12 36.35 41.18 45.48 42.73 45.47 48.71 51.31 53.73 54.92 55.03 56.61 54.98 55.74 57.96 59.95
52.45 52.18 51.89 51.93 52.02 52.29 51.16 44.38 43.25 43.67 41.07 34.34 34.62 42.03 38.03 42.16 41.92 42.16 42.48 40.83 39.64 43.51 42.51 37.75 34.76 33.84 39.09 35.00 37.74 38.42 42.14 44.92 43.31 45.87 49.99 52.06 54.39 53.53 55.17 55.73 55.79 56.27 56.63 56.26
52.56 52.75 52.43 52.02 51.95 52.04 50.51 45.97 45.63 45.75 40.05 35.12 36.23 40.50 41.54 42.31 41.61 40.86 41.10 40.18 38.74 38.32 37.47 36.83 35.08 38.66 37.74 37.54 37.54 39.84 45.53 43.81 43.01 43.38 50.24 49.88 50.86 53.15 55.01 54.70 54.48 54.99 55.27 54.97
52.40 52.77 52.75 52.09 51.84 51.76 45.46 39.10 44.56 46.46 46.22 38.75 33.89 37.65 39.12 41.96 42.03 43.43 39.97 39.53 38.18 38.45 37.26 37.35 40.05 42.25 39.53 36.02 33.33 41.46 47.10 49.99 50.12 49.63 52.00 52.82 53.69 54.27 54.83 54.86 55.68 56.14 56.02 56.32
52.23 52.30 52.51 52.20 51.88 49.82 42.30 39.89 45.33 49.06 47.43 38.67 34.89 35.49 39.84 42.91 44.30 43.38 41.87 40.44 37.72 38.75 38.85 38.84 38.75 39.45 40.85 34.95 36.57 43.04 46.22 50.88 52.23 53.48 53.19 51.43 53.19 52.56 54.17 54.81 55.61 56.19 56.29 55.10
52.02 52.12 52.40 52.14 51.58 50.64 46.69 48.93 49.20 48.83 43.63 41.10 34.55 34.14 37.12 46.76 42.91 41.33 45.79 38.24 41.20 40.53 41.19 41.82 40.67 43.20 42.97 36.74 43.02 48.53 50.19 52.37 53.88 54.11 54.62 53.81 54.28 53.99 52.98 54.02 54.52 53.24 53.84 55.41
51.90 52.26 51.95 49.31 47.66 44.51 45.32 51.09 50.21 48.73 43.14 35.26 35.56 33.48 34.48 43.48 42.91 44.57 44.36 44.80 39.36 43.63 40.76 41.88 42.09 38.57 34.19 42.36 46.76 48.15 50.29 50.69 50.54 51.97 52.22 52.33 51.25 50.62 52.05 52.42 52.25 51.71 51.60 53.25
51.52 46.95 43.37 41.11 44.49 51.64 51.89 46.89 42.39 41.50 41.98 38.19 32.77 37.84 35.26 40.66 43.40 42.76 42.17 43.95 39.95 37.13 40.31 43.50 38.13 39.72 45.20 47.63 48.82 50.30 50.75 51.14 51.68 48.68 48.33 49.41 48.73 49.09 51.28 52.33 53.81 53.26 52.61 52.72
43.91 41.02 39.43 44.51 51.94 48.24 45.20 38.51 34.28 34.69 32.41 33.48 34.49 34.93 35.70 44.03 39.08 39.03 44.00 38.79 38.28 32.61 37.41 38.62 36.50 35.77 43.87 48.43 48.98 50.55 51.77 51.84 51.90 51.41 51.18 51.10 50.38 50.38 50.65 51.51 53.12 54.17 54.70 54.53
45.04 46.19 48.26 45.37 42.38 43.10 41.27 39.03 36.98 33.81 34.16 39.94 37.89 39.43 40.13 43.25 46.62 41.26 41.31 35.68 37.21 34.19 43.55 37.55 32.94 37.54 44.95 47.91 49.28 51.09 51.85 52.14 52.76 53.38 53.38 54.30 54.55 54.25 54.25 53.67 53.69 54.49 55.29 55.86
46.17 42.69 42.82 39.02 39.37 38.34 38.17 34.39 39.97 40.70 44.10 44.84 45.36 44.43 45.09 44.97 44.98 41.89 41.97 39.02 37.78 43.42 35.39 32.26 39.03 44.41 47.95 49.30 50.55 51.20 53.06 53.14 53.24 53.66 54.19 54.78 55.08 55.61 55.06 54.74 55.56 55.83 55.96 56.67
42.89 39.66 36.50 39.93 38.44 41.22 41.71 42.77 43.82 46.02 46.57 45.41 46.17 44.14 45.32 46.08 43.02 44.01 39.32 40.90 40.76 35.39 32.61 36.56 44.19 46.92 48.69 50.14 50.76 50.71 50.03 51.69 52.45 52.98 52.91 53.29 53.88 54.37 54.80 55.00 54.71 54.34 54.02 55.14
41.45 43.29 35.23 39.12 43.26 44.02 45.60 45.93 45.96 47.25 47.91 45.29 45.07 44.67 43.67 41.00 40.14 40.91 40.19 37.41 33.32 34.91 36.50 42.63 46.40 48.22 49.31 49.34 49.43 47.70 46.54 45.93 46.00 46.59 46.49 47.32 48.18 50.23 51.49 51.99 51.53 53.13 53.19 53.40
44.73 43.79 41.90 43.28 42.31 42.60 43.56 43.28 43.18 47.78 47.59 45.20 44.31 42.07 40.33 40.58 40.94 39.08 36.83 34.43 34.07 40.17 44.10 46.76 48.19 48.61 49.46 48.13 47.74 45.80 45.36 44.74 43.99 44.55 45.17 45.33 45.93 46.95 48.12 49.10 49.57 49.10 49.40 49.13
44.98 43.70 44.32 42.29 42.83 41.41 42.45 43.49 43.21 46.85 45.87 42.02 42.94 39.88 39.49 42.07 38.58 38.09 41.45 39.77 42.66 45.27 46.51 47.76 48.06 48.56 48.72 48.18 46.83 46.10 43.88 43.29 43.84 44.50 44.72 44.40 45.24 45.79 45.16 44.37 46.08 47.15 47.91 49.17

GFSNW_sfc_wetblb_030.txt.gz
Wetbulb
53.37 53.41 53.18 52.63 51.62 50.21 43.56 33.95 29.00 40.31 41.08 30.63 29.44 28.29 32.84 38.38 38.06 39.81 38.37 38.64 37.05 35.85 37.01 35.13 35.70 37.10 39.83 45.05 44.11 39.92 40.86 33.01 36.87 39.00 43.21 47.82 48.04 43.91 38.31 36.87 34.12 32.61 33.62 38.35
53.79 53.58 52.88 52.20 51.14 50.27 40.41 32.55 32.58 40.33 38.57 26.25 26.94 32.44 34.69 37.59 37.00 36.55 36.34 35.67 38.86 38.88 35.41 32.04 37.71 39.07 44.29 44.08 42.89 40.76 41.10 33.66 31.00 34.69 40.45 41.60 40.77 44.31 40.90 43.09 36.29 38.02 35.52 38.42
53.71 53.62 52.63 51.77 51.13 50.69 41.39 33.90 29.23 32.68 35.75 32.03 28.74 29.00 29.96 32.81 40.11 38.65 38.18 36.53 38.27 36.02 34.50 36.20 34.57 37.45 42.63 43.08 44.39 48.02 41.74 32.92 32.18 31.65 34.62 39.12 37.60 41.70 43.24 42.97 40.10 40.69 40.08 40.61
53.71 53.40 52.81 52.02 51.14 50.51 41.43 34.55 31.13 35.97 27.15 29.36 33.83 28.75 30.84 32.50 31.20 37.10 38.75 37.05 35.03 33.51 29.05 32.51 32.72 36.72 37.34 40.42 43.51 39.68 36.97 32.24 33.64 35.87 39.52 40.72 40.75 41.05 42.36 40.58 43.41 40.92 43.61 43.49
52.62 53.24 53.06 52.44 51.46 49.05 39.69 32.75 36.05 37.86 34.59 35.33 34.05 32.05 27.80 30.70 32.18 33.09 33.55 35.43 34.87 34.43 29.72 31.25 29.57 32.61 32.73 33.19 37.55 34.65 34.89 32.13 33.34 34.24 40.22 40.77 39.05 41.97 43.38 43.51 42.82 42.07 44.30 42.77
52.58 52.85 53.06 52.27 51.12 46.92 42.27 43.50 43.41 38.35 35.69 31.92 32.38 29.70 31.06 31.39 33.19 35.38 38.49 36.58 34.49 33.04 35.25 36.75 36.47 36.19 35.89 36.29 33.31 32.73 31.94 32.65 31.43 29.49 36.98 37.81 35.66 40.98 42.74 43.03 44.17 43.88 40.89 44.69
52.00 52.43 52.96 52.78 51.55 47.98 42.31 41.67 42.58 36.91 31.39 33.71 32.95 34.06 33.67 32.62 33.34 32.64 35.82 36.37 33.09 37.69 40.19 39.24 36.47 35.15 35.41 36.29 36.22 36.25 31.42 31.39 31.81 29.47 32.85 28.05 38.56 44.65 46.07 44.86 46.01 45.70 45.30 46.88
52.04 51.93 51.96 52.69 52.04 51.06 43.36 42.15 42.32 38.14 31.55 33.88 33.48 33.60 33.16 33.23 33.36 31.94 33.19 35.59 37.04 38.59 36.84 31.58 28.39 27.29 28.75 32.58 35.86 35.75 36.88 32.36 29.34 28.83 29.15 35.97 40.07 46.27 47.26 45.51 44.78 48.01 47.30 47.98
52.10 51.94 52.06 51.93 52.18 51.44 43.44 42.42 43.60 41.91 35.49 33.08 35.90 33.02 33.63 30.78 29.76 31.37 33.32 37.21 36.84 36.70 32.07 29.55 24.06 22.76 27.05 28.82 32.41 35.97 35.88 36.95 32.45 30.00 28.54 28.42 38.92 49.91 53.21 52.47 42.23 50.46 50.82 48.88
52.05 52.24 52.44 52.28 52.10 51.40 44.75 43.35 43.61 41.65 36.33 38.05 36.97 34.02 32.50 35.11 34.33 32.43 31.86 32.99 33.67 35.00 31.68 29.31 27.00 24.65 32.06 26.73 28.49 27.51 29.13 31.51 28.92 30.20 31.09 35.47 43.55 50.83 54.32 41.08 42.99 53.62 54.19 54.70
52.19 52.18 52.16 52.38 52.46 52.11 48.15 44.59 43.37 42.89 38.65 38.85 40.30 40.45 36.90 36.91 35.66 31.23 32.75 31.03 31.79 31.68 29.07 28.51 27.49 29.67 30.47 28.87 30.84 30.40 29.41 29.55 29.21 30.36 30.34 29.05 49.36 50.05 47.58 49.33 53.50 54.94 55.17 56.58
52.73 52.52 52.55 52.46 52.36 52.17 51.31 43.81 45.31 46.87 41.29 39.38 42.14 42.02 42.73 41.37 40.07 36.76 36.79 35.39 32.30 36.86 32.06 33.02 32.66 30.42 32.67 30.25 27.26 35.84 30.46 35.96 34.67 34.17 34.12 43.08 50.75 51.33 53.23 53.95 54.63 55.29 55.19 56.40
52.63 52.50 52.63 53.23 52.67 52.47 51.53 46.04 46.20 44.15 40.51 36.42 36.06 36.86 41.60 43.25 43.08 43.77 35.37 37.33 38.46 37.82 37.39 33.23 33.83 32.58 35.27 27.20 30.46 34.70 37.64 40.12 38.28 39.94 43.20 47.02 50.81 53.19 53.95 55.63 55.23 55.73 56.38 57.45
52.67 52.69 52.63 53.16 53.12 52.79 52.31 46.54 46.36 44.52 40.61 33.65 33.42 41.05 37.97 41.12 41.32 41.74 41.91 40.48 40.13 41.08 41.73 37.40 35.22 32.87 37.62 32.78 34.54 34.32 36.48 37.65 36.94 39.02 44.18 49.75 52.04 52.13 52.82 55.43 56.22 55.85 56.21 55.90
52.43 52.72 52.75 53.04 53.00 52.87 51.30 48.90 46.60 46.96 39.41 33.62 35.55 39.91 40.57 40.67 38.72 40.26 41.15 39.94 38.06 37.00 37.05 36.52 35.63 38.22 36.97 37.31 36.37 33.83 37.30 35.66 34.83 35.83 44.34 47.78 49.23 52.23 53.97 55.22 55.38 56.30 56.07 56.35
52.37 52.68 52.76 52.80 52.91 52.32 46.65 40.68 44.91 47.30 46.04 38.51 33.76 37.93 40.34 43.06 41.38 38.85 37.82 38.72 38.27 37.90 36.60 36.44 39.35 42.27 37.29 32.79 33.05 38.93 41.75 43.28 44.75 43.62 49.22 50.85 52.72 54.34 55.32 55.41 55.38 55.80 56.27 57.25
52.07 52.10 52.29 52.34 52.35 49.62 43.29 40.56 45.68 47.75 46.96 38.74 34.40 35.44 39.23 41.60 40.31 41.89 39.38 39.81 38.32 38.18 37.58 36.92 37.11 37.73 39.28 33.00 31.62 38.56 41.31 42.23 45.25 50.00 51.30 51.71 53.14 52.13 54.14 54.96 56.71 57.33 57.60 57.21
52.11 51.63 52.28 52.46 52.02 50.27 46.65 48.28 49.62 48.76 43.25 40.10 33.85 34.48 35.89 41.63 39.38 38.57 40.63 36.43 37.95 40.03 38.79 41.43 39.53 40.48 38.44 31.72 36.88 40.16 42.97 41.74 44.42 49.95 53.64 53.50 54.01 53.28 53.22 54.56 54.50 54.76 55.27 56.38
52.04 51.88 52.14 49.11 47.71 45.58 45.69 51.30 51.12 48.60 41.92 34.59 34.95 33.14 32.20 41.07 40.34 42.07 42.79 44.23 39.16 43.67 39.82 40.80 40.73 36.52 32.62 37.88 42.72 46.20 46.62 43.30 44.39 52.65 52.79 52.71 52.43 52.62 52.95 53.24 52.93 52.02 52.51 54.29
51.22 45.37 41.48 40.60 45.09 51.91 50.48 46.40 41.51 40.63 40.81 37.57 32.26 37.11 34.71 39.66 42.56 42.53 42.06 43.34 39.84 35.96 39.59 43.06 37.69 35.61 42.82 46.13 48.36 49.01 50.81 51.88 51.57 49.25 49.40 51.06 51.12 51.74 52.28 52.81 53.89 53.79 53.32 54.99
43.46 40.68 38.62 44.91 49.92 48.82 45.42 37.73 35.22 33.70 32.28 33.18 34.43 35.94 35.63 43.11 38.31 39.67 42.79 38.10 37.01 31.91 37.10 37.72 35.04 35.19 42.35 48.38 49.53 51.47 52.59 52.30 51.85 51.97 52.65 51.94 52.14 51.91 52.67 52.83 53.83 54.36 54.35 53.88
46.18 46.83 48.65 46.75 43.78 43.57 40.78 38.59 37.06 35.13 34.87 38.00 37.24 38.94 38.02 41.12 45.67 40.49 41.05 34.64 35.83 33.20 41.95 36.08 32.28 42.06 46.48 48.58 49.46 51.56 53.03 53.34 53.55 54.13 53.98 54.31 54.46 54.30 53.95 53.80 53.89 54.42 55.43 55.80
46.83 43.16 41.30 42.12 42.32 37.97 37.84 34.90 38.38 40.92 44.67 44.73 44.36 43.81 44.61 44.10 44.82 41.61 41.65 38.96 37.52 43.44 35.02 31.91 39.90 45.66 47.16 46.60 46.93 46.98 48.13 48.82 52.35 54.15 54.23 53.66 53.06 53.23 53.66 53.82 55.28 56.06 55.95 56.49
41.31 40.66 35.14 39.51 39.12 40.59 41.21 40.63 41.21 45.03 45.93 44.95 44.87 44.09 43.57 45.36 40.82 41.72 39.37 40.75 40.26 35.15 31.88 35.69 41.97 44.47 45.32 45.07 45.20 44.67 44.46 45.76 47.54 48.97 50.64 50.86 49.14 48.91 49.50 51.73 53.60 54.82 54.17 54.51
41.63 41.65 35.07 38.32 43.50 44.00 44.09 44.80 43.82 44.92 46.78 44.34 43.59 42.16 41.96 40.95 40.61 41.68 39.25 36.80 32.64 34.22 37.29 41.41 44.82 46.39 45.63 44.06 44.14 43.52 43.73 44.02 44.00 45.46 46.22 48.95 49.17 47.54 46.86 48.41 49.87 49.94 49.40 48.97
45.22 43.22 39.95 42.45 40.24 40.49 41.58 41.14 40.19 44.14 45.14 45.74 44.79 42.06 39.26 39.55 41.06 38.92 37.69 33.98 33.38 39.49 43.50 46.05 47.46 47.05 45.67 43.81 43.20 42.78 43.37 43.76 43.73 44.00 44.69 44.83 45.14 45.78 46.42 47.09 47.47 47.04 46.31 44.99
43.68 41.39 41.65 40.53 39.53 39.43 40.47 41.27 40.95 42.39 43.65 40.93 41.97 38.04 38.31 42.17 38.10 35.97 38.86 37.16 39.89 42.64 42.84 43.00 44.07 43.52 43.06 43.04 41.96 41.51 41.71 41.33 42.16 42.40 42.87 43.18 44.97 45.36 44.95 44.32 45.26 45.23 44.85 44.73

GFSNW_sfc_wetblb_033.txt.gz
Wetbulb
53.70 53.85 53.56 52.51 51.40 50.04 46.30 41.04 35.76 46.00 46.08 37.07 37.13 33.35 34.67 38.42 39.30 42.29 39.93 40.92 40.25 39.33 40.10 39.27 40.06 39.87 42.67 45.46 47.48 44.32 46.21 45.53 44.90 46.13 51.07 52.14 50.20 48.63 48.35 43.91 43.18 44.90 44.78 44.66
53.79 53.74 53.17 52.21 50.94 49.71 46.47 38.88 37.15 45.79 45.52 30.94 32.39 35.53 35.02 37.60 38.24 38.74 38.67 37.55 40.60 41.55 39.71 37.09 40.24 41.91 45.15 45.78 46.67 44.21 46.14 43.54 42.61 44.32 47.82 49.11 48.24 49.88 49.66 49.49 48.94 45.02 41.92 44.59
53.56 53.64 52.96 52.03 51.24 50.46 46.61 40.45 34.24 39.42 40.30 38.79 33.29 31.20 32.83 33.29 39.67 38.53 39.44 38.70 39.81 38.82 38.38 40.87 38.18 39.46 43.01 44.41 45.62 47.74 46.75 43.13 43.52 42.67 45.23 45.55 44.39 47.13 49.38 48.60 45.65 45.72 45.71 47.60
53.30 53.54 52.94 52.26 51.37 49.83 46.84 41.50 35.97 37.78 32.02 34.64 34.90 34.93 33.32 32.68 32.81 37.04 39.41 36.11 36.12 34.33 34.03 36.36 36.43 38.60 40.28 42.73 44.86 44.33 44.63 39.84 41.52 42.50 43.04 43.49 43.90 44.32 45.66 46.08 48.36 46.55 47.89 48.55
52.15 52.87 53.10 52.44 51.34 48.32 45.73 39.43 37.99 39.13 34.50 37.00 35.17 34.37 32.60 32.17 33.83 33.93 33.36 34.46 36.61 35.74 34.44 35.60 33.86 36.26 38.17 37.93 42.37 41.51 43.07 39.13 40.41 39.20 42.22 43.30 42.46 44.79 45.39 45.85 46.43 46.92 48.25 48.48
52.37 52.46 52.80 52.56 51.00 48.37 45.28 46.08 45.24 39.22 35.27 34.34 33.65 33.88 33.77 33.64 35.55 36.65 37.99 35.86 34.75 33.68 36.36 38.88 40.20 40.99 40.72 40.21 38.30 38.21 39.10 39.10 38.05 35.38 41.16 41.55 39.51 43.86 45.50 46.58 48.17 48.06 45.09 49.80
52.29 52.39 52.86 52.71 52.00 49.62 47.77 45.93 44.05 37.99 32.18 33.95 33.18 33.98 34.99 34.36 35.55 33.45 36.97 37.84 35.36 38.45 42.66 42.48 42.34 40.88 40.21 40.17 40.11 41.12 37.74 38.55 39.42 35.56 38.11 31.92 44.55 48.82 48.74 48.52 49.26 50.26 50.23 51.31
52.39 52.33 52.52 52.85 52.56 51.49 47.99 48.20 43.76 39.03 33.60 35.06 35.05 35.15 35.06 36.31 37.16 35.42 35.54 38.13 40.78 42.45 39.95 35.79 32.69 34.87 35.64 37.60 39.39 39.56 40.43 38.45 35.89 33.77 35.16 39.75 41.90 45.75 49.02 49.53 49.31 55.25 53.09 52.39
52.24 52.33 52.41 52.61 52.81 52.13 48.98 47.86 48.47 43.38 35.74 34.31 37.76 35.49 36.06 32.94 32.43 34.06 36.34 40.97 43.18 42.17 39.01 34.85 27.64 28.14 31.62 31.61 36.63 40.97 40.10 39.81 36.41 35.52 31.76 31.66 43.61 48.90 53.36 54.95 44.93 56.01 56.93 56.98
52.24 52.48 52.65 52.65 52.96 52.43 49.38 47.41 48.08 44.02 36.77 38.92 38.63 34.78 35.05 37.09 35.57 33.97 35.49 36.62 37.86 41.37 35.99 30.76 27.89 28.79 34.93 29.78 30.53 34.03 34.03 34.64 32.06 33.35 33.10 37.91 45.72 50.20 55.70 45.20 47.60 57.49 58.60 59.09
52.21 52.42 52.66 52.85 53.08 53.07 51.01 46.40 47.29 45.33 39.17 38.85 40.82 40.79 37.51 37.05 36.65 32.80 35.93 35.56 36.74 35.93 31.08 30.97 31.55 30.98 34.03 32.97 35.52 34.33 34.11 33.01 32.23 33.80 31.66 29.69 47.54 48.52 44.79 53.67 57.15 57.47 58.67 60.22
52.50 52.31 52.61 53.06 53.39 53.45 52.51 46.56 46.87 47.43 42.05 40.50 44.58 44.62 45.25 43.61 42.65 38.34 37.70 36.54 36.57 38.18 35.10 33.98 33.60 32.99 35.26 33.91 28.95 39.96 33.07 37.41 36.69 37.20 36.94 45.84 48.87 50.13 53.90 56.66 55.65 57.45 59.26 60.73
52.63 52.46 52.27 53.02 53.37 53.35 52.64 47.85 46.00 45.31 41.16 39.60 40.09 39.63 44.57 46.70 45.64 46.16 35.61 37.90 39.84 38.81 42.09 38.27 36.37 31.58 36.35 30.91 33.01 36.27 39.78 43.92 39.20 39.63 42.05 45.03 46.70 50.57 52.44 57.84 58.28 59.90 60.45 60.93
52.78 52.50 52.44 52.92 53.50 53.33 53.10 48.74 47.25 45.01 41.11 35.17 38.02 45.05 42.81 46.66 46.35 45.10 44.37 42.30 43.18 42.67 41.14 36.08 35.20 34.26 40.10 34.89 36.89 37.07 39.77 41.66 39.80 39.54 42.43 44.39 46.59 49.32 52.71 55.60 58.15 59.43 59.53 59.13
52.53 52.43 52.65 53.07 53.07 53.12 52.73 50.91 47.78 47.49 41.27 35.84 36.79 43.33 45.01 45.23 44.58 43.27 43.54 42.04 40.49 38.67 36.70 36.48 35.44 38.10 37.32 38.25 37.39 34.21 40.17 38.98 36.85 35.60 44.08 45.35 47.43 51.09 55.10 56.40 57.11 59.56 57.42 58.67
52.15 51.97 52.58 52.66 52.70 52.09 48.39 42.72 46.62 48.77 46.48 38.84 33.73 43.12 42.40 44.31 42.54 42.49 41.57 41.27 40.46 39.01 36.76 35.86 38.52 41.28 37.77 34.31 34.16 40.01 42.73 43.90 44.62 42.79 46.17 46.72 49.22 51.72 54.90 56.46 58.62 58.00 57.18 60.73
52.18 52.16 52.42 52.46 52.33 50.32 44.79 41.28 46.62 48.50 47.85 39.32 34.99 35.39 43.53 44.39 43.40 41.00 39.87 40.81 39.18 38.34 37.33 35.88 36.59 37.73 38.97 33.06 31.04 37.98 41.28 43.11 44.64 46.60 46.70 45.03 47.11 49.37 56.59 57.16 58.71 57.25 58.94 61.20
51.79 52.14 52.46 52.33 51.25 50.43 46.91 48.86 48.56 48.60 43.44 40.53 34.32 34.41 39.24 45.67 42.93 42.66 42.46 38.69 38.73 38.20 36.82 38.12 36.84 38.58 36.08 30.82 36.70 39.22 41.41 43.30 42.32 43.50 45.48 46.46 50.18 55.84 56.83 56.16 56.81 57.13 58.61 60.09
52.01 51.41 51.83 50.93 48.67 46.08 47.14 51.86 50.02 48.75 43.21 36.42 35.86 34.05 34.32 43.84 43.23 45.90 43.86 40.47 36.03 40.75 35.52 38.47 40.01 33.93 31.77 36.56 39.41 41.98 47.45 44.22 43.29 44.90 46.24 47.33 51.05 53.34 54.47 55.33 55.75 56.81 58.58 60.20
50.39 50.01 46.79 44.83 47.14 52.08 50.93 46.16 41.45 40.52 41.06 38.40 33.95 37.96 35.42 40.47 41.99 41.95 41.60 43.23 37.91 34.46 37.86 42.63 34.61 33.03 41.57 45.40 49.78 51.38 49.16 48.57 48.51 47.30 49.47 51.41 50.71 53.35 54.50 54.15 54.96 55.83 56.92 58.24
49.16 45.67 44.55 48.20 51.40 48.63 45.93 37.61 36.15 35.37 33.42 34.33 34.98 36.47 35.36 43.12 37.74 39.48 41.40 37.69 35.95 32.51 37.50 35.98 33.22 33.57 40.50 44.89 45.85 51.39 53.60 53.66 53.43 53.73 53.45 53.57 53.73 53.35 54.72 56.69 57.08 57.88 58.08 57.12
48.39 47.57 49.05 48.46 46.60 45.20 42.16 40.04 39.27 36.98 37.10 39.75 37.60 40.11 38.16 40.68 44.69 41.09 42.20 37.14 37.86 35.05 42.52 36.73 32.15 39.57 43.41 43.93 44.74 45.92 49.16 51.11 50.50 50.78 51.61 53.01 54.71 55.31 55.53 55.56 55.02 56.11 57.40 58.41
49.53 46.15 46.57 45.33 45.31 37.04 37.16 34.20 37.93 39.63 45.03 46.86 45.73 44.91 44.60 45.08 46.48 42.88 42.96 39.63 37.96 44.17 36.28 32.15 36.93 42.44 44.21 44.58 45.95 45.81 46.13 46.55 47.78 50.11 49.38 48.84 49.27 51.01 53.65 54.69 55.84 56.22 55.12 54.66
46.75 44.14 37.10 41.65 38.75 39.31 39.24 39.91 40.93 45.00 46.82 45.23 47.53 46.06 44.75 46.09 43.98 44.04 39.34 41.18 40.51 36.66 32.51 33.04 39.14 43.80 45.11 44.48 45.45 46.54 45.58 46.15 46.02 46.43 46.55 47.46 47.66 46.93 47.48 48.25 49.67 50.98 50.20 50.60
46.46 44.70 37.57 41.38 44.55 44.84 45.00 45.97 44.48 45.59 46.11 46.56 46.89 46.65 45.88 44.33 42.97 42.54 39.59 38.64 33.60 34.48 35.93 41.29 45.35 46.80 44.25 42.97 43.49 43.93 44.72 44.91 45.94 46.86 46.10 46.42 46.68 45.96 45.45 46.00 46.39 48.43 48.97 49.01
48.71 46.45 42.57 44.55 42.80 42.00 42.89 43.41 42.78 45.96 45.73 50.18 48.17 43.86 41.76 40.50 40.41 37.94 35.80 34.53 33.06 37.02 40.60 43.05 44.72 43.74 43.07 42.43 42.67 43.51 44.16 44.34 44.91 45.59 46.26 46.45 46.03 45.68 45.55 46.15 46.42 47.18 48.14 47.57
46.60 44.46 46.37 45.21 44.41 42.93 43.18 44.02 43.95 46.83 45.89 43.02 43.51 37.22 37.45 42.00 37.17 35.35 36.03 33.71 36.56 40.76 42.09 42.74 42.66 42.41 42.50 43.82 43.05 42.98 43.80 44.83 45.23 45.14 45.76 46.17 46.49 46.99 46.53 44.94 45.21 46.66 46.99 47.39

GFSNW_sfc_wetblb_036.txt.gz
Wetbulb
53.99 54.20 53.64 52.90 51.46 50.22 49.65 47.94 40.59 50.29 51.70 42.93 42.67 38.23 38.91 39.73 41.28 43.38 42.80 43.11 41.12 42.36 43.52 43.54 44.27 44.67 46.75 48.81 50.43 48.94 52.81 51.36 48.98 49.54 53.05 53.70 52.86 51.13 51.29 46.70 46.88 48.29 48.44 49.24
53.88 53.93 53.41 52.43 51.12 50.72 49.61 44.04 44.36 50.79 49.24 36.68 37.19 39.47 38.83 40.44 39.89 40.17 40.20 40.18 42.74 43.42 42.52 40.56 43.54 45.00 47.01 47.75 49.36 49.54 52.15 49.06 46.48 48.48 51.19 52.87 50.69 51.87 52.37 51.58 51.56 49.04 45.71 48.68
53.59 53.32 52.98 52.33 51.48 50.68 49.72 44.55 39.41 45.21 46.20 45.34 39.12 37.03 36.92 36.99 41.23 39.73 40.74 38.30 41.46 41.76 41.20 43.76 41.91 43.36 45.25 46.79 47.21 48.25 49.19 50.31 49.08 46.64 49.25 51.52 49.34 50.81 51.70 51.01 48.41 48.88 49.76 51.02
53.25 53.40 52.92 52.45 51.55 50.30 49.46 45.98 40.47 41.32 37.00 38.98 38.94 37.84 38.25 35.91 34.69 40.06 41.10 36.72 35.78 35.91 37.53 40.40 40.02 42.62 44.21 45.97 47.33 48.07 48.62 47.00 47.76 50.50 48.39 48.31 50.68 50.20 51.08 50.39 51.33 49.08 51.18 51.72
52.83 53.32 53.17 52.71 51.64 49.78 48.12 41.67 39.90 41.68 40.06 39.41 36.53 36.96 35.88 35.51 35.97 36.71 36.56 35.37 36.77 36.84 34.62 36.17 35.57 39.92 42.40 42.12 45.93 45.63 47.06 45.20 46.25 45.47 47.41 46.94 46.51 49.33 50.28 51.15 51.89 51.90 52.31 52.47
52.94 53.22 53.33 52.92 51.97 49.21 46.88 47.93 47.32 42.82 38.48 37.83 36.16 35.41 36.03 35.67 37.67 39.33 39.70 38.58 38.16 36.05 37.56 40.50 42.91 44.28 44.52 44.23 42.62 42.98 43.29 43.89 43.25 43.07 47.38 46.32 43.89 48.05 49.57 50.60 52.33 52.16 49.98 54.16
52.98 53.30 53.40 53.17 52.83 50.32 49.94 47.48 45.82 39.76 34.37 36.27 35.64 37.04 37.57 36.48 37.31 35.67 40.06 40.95 38.10 41.65 45.62 44.63 45.10 44.74 43.99 43.49 43.60 45.20 42.46 42.64 43.48 42.37 44.86 37.10 48.95 53.38 52.62 50.88 52.28 53.63 53.73 55.02
52.95 53.35 53.51 53.51 52.94 52.46 49.12 49.06 44.84 40.25 34.68 36.82 37.78 37.36 37.67 39.18 38.85 37.35 39.08 41.25 43.88 46.17 42.85 39.18 37.65 38.44 39.07 40.72 42.54 42.98 44.69 43.04 40.70 39.10 40.28 45.22 47.20 48.53 49.07 49.58 50.70 54.43 54.22 55.59
52.82 53.18 53.08 53.35 53.15 52.48 50.56 48.56 49.12 43.93 37.00 36.15 39.58 37.64 38.24 36.13 35.98 37.73 38.55 43.42 46.42 44.74 40.70 37.40 31.78 33.25 35.32 35.77 38.57 43.78 43.61 44.10 40.65 40.82 36.99 37.20 47.20 51.16 52.85 53.06 47.71 56.16 57.40 57.67
52.43 52.66 53.00 53.17 53.33 52.71 51.06 47.69 49.18 43.72 37.71 40.30 40.92 37.55 37.22 40.20 38.50 36.96 38.45 40.83 41.04 43.70 37.70 33.98 33.00 33.08 37.90 33.64 34.70 38.23 38.23 39.26 36.86 37.82 37.61 42.60 49.15 52.91 56.01 45.51 52.16 59.29 59.65 60.14
52.48 52.75 52.97 52.87 53.19 53.33 51.75 48.33 48.79 44.30 39.02 40.76 43.71 43.09 39.41 39.04 38.59 34.60 38.92 38.47 40.17 40.36 35.64 35.39 36.13 34.95 38.89 36.46 39.20 38.05 38.40 36.61 36.74 38.00 36.58 35.03 49.03 48.60 46.22 53.05 55.69 58.20 58.64 59.08
53.04 52.65 52.80 52.96 53.27 53.37 53.31 47.89 48.47 48.52 42.39 41.47 47.46 47.32 47.35 45.27 42.86 40.11 40.00 38.29 38.26 41.31 38.41 39.27 36.66 36.00 37.82 37.30 33.64 42.80 36.43 40.60 39.29 40.46 40.52 48.03 50.72 50.19 53.22 53.65 53.36 54.83 57.40 58.75
52.88 52.32 52.79 53.14 53.48 53.41 53.05 49.34 47.13 45.52 41.65 41.12 42.91 44.54 48.79 50.41 49.31 48.64 37.63 39.44 41.05 40.71 43.36 38.59 38.46 33.91 39.32 34.81 36.97 39.08 42.30 45.52 41.49 41.87 44.55 46.10 48.61 50.62 51.88 52.46 52.92 56.05 57.26 57.69
52.38 52.30 52.80 53.17 53.54 53.50 53.13 49.30 47.60 46.74 42.12 36.29 42.30 48.51 46.14 49.74 48.86 47.57 46.57 43.98 44.07 43.14 43.06 39.35 37.44 36.07 42.40 38.26 40.56 40.00 43.11 44.74 42.49 42.73 45.72 47.31 48.34 49.55 50.91 52.08 52.79 53.15 55.00 57.93
52.07 52.39 52.84 53.11 53.19 53.05 53.51 51.20 48.60 49.08 43.20 37.98 40.78 46.90 48.94 48.96 48.25 46.00 45.78 43.81 41.58 39.51 38.18 36.56 35.24 38.36 37.60 39.10 40.05 38.99 43.15 41.89 39.89 39.49 46.32 46.58 47.88 50.63 51.99 50.82 50.55 55.31 56.24 58.21
51.92 52.42 52.76 52.72 52.39 52.69 50.57 45.77 48.27 51.16 47.83 40.37 37.11 46.65 45.32 46.96 45.10 43.50 43.53 43.48 42.38 41.69 38.56 36.78 38.30 41.43 37.34 34.39 34.01 40.42 43.22 44.79 46.10 44.26 48.10 48.81 50.03 51.05 52.31 52.38 53.92 55.55 56.83 60.12
52.27 52.76 52.82 52.81 51.77 53.07 49.00 45.80 48.78 50.06 49.39 40.60 36.86 40.36 46.98 47.09 45.28 42.60 42.59 43.39 41.54 39.53 35.91 34.89 36.63 37.37 38.17 34.04 30.99 37.70 40.96 43.03 44.03 45.62 45.93 44.84 48.04 48.34 51.45 52.77 54.44 56.19 57.42 60.18
52.60 52.47 52.54 51.77 50.82 49.96 48.81 50.14 49.42 50.33 44.57 42.41 36.32 39.21 43.46 47.42 42.83 42.30 43.01 38.84 38.61 37.07 34.87 35.71 34.69 36.59 35.46 31.67 36.83 39.93 42.24 43.57 42.66 43.05 44.87 44.80 47.96 49.93 52.08 53.53 55.19 57.11 58.12 58.42
52.12 52.72 52.26 52.81 50.13 47.29 48.98 50.72 49.73 50.17 44.13 36.97 36.81 35.40 36.24 45.61 43.26 45.72 42.36 40.96 35.05 39.34 34.92 34.81 38.18 34.22 32.41 34.19 39.45 45.86 50.57 49.00 46.21 47.37 44.73 44.76 45.38 48.08 49.05 50.21 56.18 56.32 55.95 58.07
52.13 52.24 51.62 47.88 48.33 52.02 50.44 46.54 42.39 41.78 41.11 39.40 34.41 38.06 35.67 40.19 41.76 41.32 41.87 42.55 37.53 36.01 38.65 43.07 35.57 34.93 41.13 42.89 45.91 46.81 49.13 49.23 47.44 45.11 44.21 46.10 47.84 47.92 50.72 54.32 55.83 55.51 57.03 59.08
54.17 53.32 50.52 50.28 52.53 47.84 46.59 41.17 38.35 38.63 35.86 37.57 37.31 38.28 37.24 43.85 38.94 39.63 42.03 38.52 37.97 35.13 41.02 40.07 36.34 34.92 40.69 43.59 45.51 47.72 48.03 48.69 49.00 50.90 51.41 52.94 53.01 52.52 53.24 55.07 55.85 56.64 55.91 55.88
52.20 51.64 51.02 52.07 48.69 49.23 44.70 41.29 42.50 40.37 40.73 46.82 40.74 42.65 41.28 42.36 44.49 42.81 45.06 41.74 43.20 37.92 45.99 39.02 32.77 39.21 43.98 44.15 44.19 46.40 48.53 48.01 48.06 48.74 48.19 48.80 49.97 53.59 54.58 55.49 54.05 54.38 54.64 54.83
52.11 49.60 49.77 48.28 46.85 38.09 37.82 35.81 38.71 40.42 47.48 48.06 47.64 46.86 48.13 47.55 47.79 45.89 46.00 42.64 40.79 46.81 39.81 33.14 37.30 44.32 45.80 45.57 45.00 45.31 47.50 48.35 48.11 47.99 48.47 48.37 48.36 47.95 49.19 50.47 52.32 54.26 53.56 54.39
51.47 46.55 37.73 44.07 42.29 43.26 42.47 42.29 43.09 46.60 47.52 48.97 49.92 49.16 48.76 50.84 46.24 44.06 40.52 42.28 42.92 37.51 32.77 33.44 41.88 44.69 45.69 45.63 46.98 46.85 46.59 46.68 46.76 46.74 46.86 46.74 47.06 47.08 47.50 48.24 49.22 49.86 50.75 52.15
49.07 48.26 40.02 43.66 46.08 47.90 47.74 48.98 48.88 49.91 50.90 51.06 51.25 51.35 49.62 47.26 44.69 44.67 41.12 39.33 35.84 35.90 35.22 39.53 43.28 44.95 45.47 45.05 46.22 46.66 47.41 47.33 47.60 47.90 47.97 48.34 47.24 46.45 46.72 47.93 49.67 50.38 48.35 49.51
50.22 48.32 45.49 47.27 46.31 46.21 47.33 47.49 47.41 50.39 50.98 53.61 52.35 47.02 44.24 42.68 42.74 37.87 35.12 35.19 32.41 36.05 40.71 43.34 43.20 43.49 46.17 46.07 47.08 47.47 47.72 47.83 48.04 49.01 49.27 48.95 48.49 47.95 47.98 48.60 48.75 49.00 49.75 48.92
48.22 47.31 49.58 48.56 47.95 46.92 47.56 48.34 47.80 51.34 49.06 46.21 47.07 39.64 38.36 44.97 39.37 36.91 41.82 37.67 40.19 44.06 43.67 44.26 45.58 45.13 45.76 47.02 46.43 46.92 47.46 47.25 47.97 48.05 49.00 49.30 50.12 50.16 49.40 47.70 49.26 48.72 48.90 49.68

GFSNW_sfc_wetblb_042.txt.gz
Wetbulb
54.54 54.66 54.29 53.53 52.12 50.99 50.47 50.13 45.78 54.82 54.16 44.29 44.68 40.90 42.83 42.47 43.15 44.26 42.12 41.89 40.33 38.60 39.36 38.32 38.89 40.72 45.94 52.13 50.78 49.37 54.12 50.63 47.94 50.40 55.08 55.24 53.62 51.35 52.28 48.15 47.89 49.58 49.85 49.40
54.77 54.75 54.15 53.31 52.05 51.64 49.87 47.07 49.03 54.75 52.46 39.57 40.10 43.20 42.50 42.82 42.07 42.26 40.72 40.06 40.75 41.43 37.99 35.97 40.12 41.28 46.86 48.82 48.90 47.77 50.29 49.91 46.24 48.34 53.07 54.45 52.22 52.48 52.66 52.98 51.63 50.07 47.42 49.06
54.81 54.52 53.90 53.13 52.46 52.11 50.77 47.78 42.27 47.33 47.08 46.30 41.93 40.32 39.59 39.30 43.09 42.27 41.08 40.45 42.61 40.07 37.66 40.14 37.23 38.34 44.54 47.68 48.97 54.23 51.81 49.28 48.87 47.07 50.70 53.95 51.26 51.50 52.71 51.49 49.53 49.85 50.22 52.27
54.53 54.57 54.01 53.49 52.80 52.38 50.83 47.37 42.62 44.13 38.32 40.87 41.51 41.93 40.65 38.83 38.67 41.82 41.18 40.02 37.92 38.69 34.86 36.18 35.86 39.82 42.01 45.47 50.52 50.86 51.31 47.69 50.84 51.97 53.35 54.11 51.93 51.08 51.84 51.29 53.03 50.25 51.88 52.75
54.37 54.43 54.05 53.72 53.27 52.09 48.83 42.85 40.88 41.97 40.51 42.96 40.68 40.49 38.54 38.76 40.03 40.14 38.63 38.48 38.19 39.52 37.00 37.52 35.84 38.79 39.11 39.85 45.49 45.50 49.72 46.40 50.38 49.73 52.68 53.02 51.83 52.27 52.22 52.39 52.11 52.95 53.47 53.46
54.16 54.16 54.03 53.68 53.16 52.04 47.00 48.65 46.48 41.51 38.44 39.71 38.27 38.65 38.98 39.12 41.17 41.98 42.36 40.35 39.96 38.89 40.14 42.67 43.06 43.51 43.36 43.34 42.48 43.20 45.46 46.01 46.36 45.09 51.04 51.60 48.99 52.54 52.72 53.05 54.04 53.40 52.05 56.44
53.71 53.81 53.89 53.66 53.37 52.38 50.80 50.13 45.54 37.54 34.66 38.22 38.30 39.74 40.22 38.98 40.48 39.30 41.59 42.27 39.91 42.81 47.42 46.10 44.69 44.29 43.88 44.30 44.51 46.12 43.34 44.21 45.78 44.17 48.29 41.75 52.34 56.58 55.62 54.29 54.75 55.57 56.37 58.19
53.75 53.48 53.69 54.04 53.47 52.98 52.29 52.52 43.97 38.93 34.62 38.46 38.81 39.31 39.61 41.12 42.84 41.40 41.79 43.14 45.17 46.44 44.44 39.30 37.40 38.82 40.45 42.12 44.23 44.50 46.27 44.03 42.48 42.69 44.21 49.23 51.76 54.25 54.04 53.02 53.41 56.61 57.07 58.05
53.33 53.13 53.11 53.39 53.66 53.22 53.81 51.70 48.04 42.20 36.36 36.86 41.50 38.95 40.61 37.90 39.64 41.10 42.05 46.22 47.94 46.30 40.33 38.20 33.27 31.34 38.87 37.48 40.82 46.00 45.47 46.67 42.71 43.68 41.36 41.31 51.03 55.00 56.94 56.66 49.76 58.14 57.53 57.20
52.96 52.88 53.23 53.73 54.00 53.47 53.64 50.80 49.90 44.21 37.39 39.91 42.07 38.91 38.29 42.45 40.88 39.30 42.24 43.43 42.93 45.94 37.17 35.72 34.81 35.01 40.94 37.37 37.65 39.16 40.18 41.04 39.66 41.06 40.99 46.88 52.73 53.94 56.52 48.42 50.07 58.55 59.99 60.28
52.94 53.08 53.47 53.60 53.75 54.05 52.88 51.02 51.38 45.26 39.99 40.92 44.58 44.81 42.13 42.53 41.99 37.43 42.12 41.05 41.19 41.20 36.90 37.31 37.81 36.39 38.96 39.36 41.08 40.47 40.11 38.21 38.20 41.18 40.09 39.36 52.16 52.33 49.39 54.72 56.22 56.01 57.05 57.69
52.85 53.10 53.49 53.58 53.76 53.72 53.76 49.14 51.72 50.05 42.76 42.68 47.85 49.01 49.33 47.97 47.04 43.40 42.63 41.10 40.59 41.60 38.61 39.98 38.81 36.88 39.18 39.31 35.13 44.65 38.22 42.35 40.84 42.84 43.24 53.20 53.23 52.30 53.99 54.41 54.37 54.81 54.97 55.38
53.00 53.27 53.58 53.53 53.72 53.90 53.62 51.71 49.27 47.05 42.78 42.38 44.16 46.16 50.46 51.65 50.63 51.02 41.30 42.88 44.01 42.72 44.76 39.85 39.86 37.10 41.21 35.80 38.31 40.11 43.34 46.73 42.57 43.45 46.57 48.71 50.30 52.25 52.89 53.31 52.80 53.75 54.20 54.19
52.81 53.20 53.49 53.80 53.86 53.66 53.72 50.27 49.50 48.61 44.07 38.52 44.29 51.77 48.66 52.03 51.18 49.63 48.55 45.78 46.09 45.45 43.68 39.91 38.69 36.54 42.46 38.47 39.94 39.42 42.62 44.17 42.76 42.81 46.51 48.62 49.59 50.71 51.66 52.41 53.10 53.09 53.93 54.04
52.92 53.37 53.55 53.55 53.49 53.12 54.96 53.40 51.48 50.72 45.21 39.76 42.72 48.68 49.38 49.95 49.43 47.83 47.87 46.48 44.87 43.40 39.17 37.48 36.21 39.49 38.81 40.63 40.78 38.94 43.69 40.80 38.89 39.49 46.31 46.46 47.91 51.14 52.76 52.28 52.16 53.50 53.63 53.98
52.78 53.35 53.43 53.57 52.64 52.94 52.59 46.45 51.04 52.04 49.91 42.66 38.27 48.52 46.88 47.94 47.00 45.60 44.90 44.61 43.95 42.45 38.12 36.58 38.67 41.40 38.41 34.89 34.52 40.90 42.92 43.28 43.91 41.72 45.73 47.32 48.66 50.35 51.36 51.85 53.01 53.70 53.84 55.44
53.19 53.24 53.29 53.25 53.22 54.53 49.80 46.69 49.66 51.71 51.53 43.62 40.53 43.26 47.17 47.65 46.24 44.15 44.15 44.53 40.96 38.93 36.97 34.94 35.58 36.21 38.53 34.41 32.52 39.14 40.52 42.11 41.83 42.88 42.90 42.72 45.89 46.35 50.02 51.26 52.45 53.45 54.24 54.84
53.22 52.69 52.65 51.58 51.10 50.34 49.66 51.85 51.08 51.60 47.28 43.97 38.69 42.23 46.06 48.30 44.17 41.26 43.42 39.52 39.04 38.70 38.05 37.94 35.28 36.26 35.27 31.69 37.44 42.05 43.71 45.86 48.72 50.10 51.15 46.63 48.13 49.83 49.56 50.65 50.64 50.69 51.50 53.02
52.44 53.11 52.32 54.33 52.76 50.81 50.29 50.95 50.45 52.19 47.89 40.40 43.56 38.52 40.94 50.27 45.83 44.29 42.11 40.22 35.65 39.12 35.84 37.81 36.76 32.42 32.42 36.77 41.54 42.85 43.59 45.10 47.46 51.28 51.10 50.73 48.55 47.18 49.25 49.35 49.88 49.62 50.49 52.19
53.01 52.96 52.30 49.49 52.97 52.35 51.96 48.95 46.44 47.28 49.26 48.05 44.62 46.03 42.66 48.07 46.42 43.99 43.95 41.50 41.37 37.03 42.37 43.82 40.66 37.13 42.72 44.68 45.22 46.04 45.01 47.51 50.03 47.71 45.75 45.96 45.98 45.78 47.59 48.00 50.06 50.77 51.77 53.36
54.36 54.56 53.41 54.39 52.19 51.63 49.08 50.14 47.99 49.68 45.21 48.18 46.37 49.03 46.26 50.60 44.49 43.52 46.83 45.93 45.09 41.00 40.99 40.52 38.11 35.47 41.82 45.47 45.75 46.35 47.35 46.81 48.06 49.41 49.81 49.48 50.03 48.43 48.14 49.03 51.54 52.89 53.18 53.96
55.47 56.70 58.18 55.79 51.45 51.47 48.38 46.08 48.94 47.31 46.25 50.29 49.99 51.94 49.90 50.89 50.56 45.54 48.84 45.58 46.68 38.16 45.31 39.07 33.14 40.56 45.13 46.08 46.39 46.90 47.26 47.39 47.17 48.82 48.59 49.38 49.53 50.00 49.98 50.35 51.37 51.38 51.54 51.89
59.45 56.60 53.25 52.75 51.85 42.11 43.40 41.55 45.08 45.39 49.91 50.72 50.99 48.03 49.80 53.80 51.96 51.16 48.81 43.24 41.95 47.29 39.61 34.93 39.40 45.15 47.06 47.01 46.86 46.43 47.69 48.09 48.16 48.02 49.15 49.04 49.08 49.04 48.75 48.96 49.83 50.14 50.74 50.75
55.07 50.42 39.85 47.76 45.67 47.43 47.87 46.37 47.34 50.50 50.96 51.18 52.36 49.16 49.78 50.96 48.15 47.55 41.43 45.29 43.96 37.40 33.68 34.54 41.88 45.21 47.12 48.24 47.14 45.76 44.83 46.52 47.18 48.44 48.83 48.04 47.62 47.94 49.03 49.32 49.54 50.03 49.81 50.26
52.11 51.62 42.45 47.00 50.38 51.21 51.11 51.56 50.65 51.12 52.77 52.08 51.49 51.91 51.31 47.73 45.12 44.91 43.98 40.23 35.88 35.94 36.00 41.00 45.84 47.30 47.13 47.79 47.99 46.79 45.84 45.60 45.18 47.52 48.56 48.42 48.54 47.30 47.42 48.26 49.08 48.52 48.84 50.20
53.77 52.15 48.91 51.19 49.56 48.84 49.24 49.15 48.75 51.28 51.65 52.81 52.12 47.91 44.82 43.76 43.82 40.34 38.65 37.09 34.31 39.16 43.05 46.76 47.17 48.67 48.75 48.00 47.39 48.91 47.46 46.50 45.93 45.96 48.03 49.66 48.52 48.09 47.72 48.29 48.01 48.22 48.31 47.09
51.32 51.33 53.10 52.10 50.67 49.05 49.47 50.14 49.59 52.36 50.42 46.76 48.13 43.11 41.51 45.47 39.82 37.93 41.13 38.54 41.43 43.68 45.73 47.56 49.11 48.59 47.99 48.53 48.21 48.21 48.28 47.42 47.27 46.50 48.46 48.37 50.50 50.47 49.46 48.03 48.91 48.34 48.79 49.65

GFSNW_sfc_wetblb_045.txt.gz
Wetbulb
54.48 54.68 54.47 53.70 52.36 51.18 49.02 46.48 40.89 53.50 52.95 42.68 43.02 38.29 40.83 42.15 41.19 43.30 41.42 40.45 38.38 35.97 36.45 35.21 35.03 34.89 39.18 45.24 43.29 38.57 44.19 42.25 41.40 43.99 50.91 54.05 50.88 47.37 46.04 42.28 38.38 40.80 39.44 43.13
54.42 54.58 54.10 53.25 52.06 51.69 47.98 42.81 45.10 52.62 49.77 36.15 37.55 40.60 40.62 41.99 40.42 39.93 39.84 38.20 39.46 39.04 36.36 33.11 36.62 38.16 44.15 44.65 41.92 40.06 43.61 39.23 38.29 42.02 46.06 49.86 49.16 48.85 48.32 45.13 43.81 40.13 39.84 42.43
54.44 54.33 53.71 53.06 52.52 52.11 48.98 44.63 39.18 43.70 45.37 43.50 38.55 37.12 37.81 37.87 43.29 41.52 41.32 38.73 40.08 37.92 35.39 36.96 35.04 35.60 41.58 43.69 42.46 48.03 47.32 40.70 38.95 39.26 43.22 46.54 46.61 49.03 48.59 46.58 43.09 42.48 44.96 43.67
54.34 54.40 53.86 53.41 52.80 52.19 48.85 44.88 40.35 41.42 35.06 36.22 37.79 39.17 38.26 36.74 36.15 41.73 41.97 38.07 38.16 36.22 31.71 34.50 34.53 37.25 38.28 41.10 44.17 43.07 41.16 36.49 42.83 46.29 48.78 49.67 49.62 49.01 49.04 46.47 46.33 44.94 45.85 46.78
54.30 54.15 53.72 53.53 53.00 51.98 47.37 42.00 41.01 41.06 38.32 38.87 37.21 38.32 36.56 36.53 37.45 38.24 37.04 36.53 37.95 36.45 33.39 35.10 32.14 36.20 35.91 36.21 40.11 38.22 39.67 36.92 42.43 43.89 49.41 49.99 49.48 51.08 50.27 49.41 48.88 48.16 48.32 47.11
53.89 53.93 53.72 53.43 52.91 51.68 45.95 48.45 46.85 41.70 38.33 36.70 36.04 36.85 37.48 37.67 39.21 40.28 41.13 40.22 37.46 35.64 38.31 40.66 40.79 41.47 40.66 39.53 38.65 36.15 36.31 38.26 37.63 37.71 47.18 48.82 44.42 49.80 50.12 49.84 50.96 49.63 46.44 49.22
53.71 53.87 53.93 53.49 53.26 52.44 50.03 48.57 45.37 38.07 34.09 36.26 35.90 37.74 38.89 38.42 39.36 37.76 40.87 41.38 38.14 40.95 44.62 43.52 42.68 41.38 40.53 40.62 40.33 40.75 36.71 37.35 37.63 37.54 43.79 36.20 47.13 53.87 54.07 51.35 51.76 51.66 50.95 55.22
53.13 52.87 52.90 53.11 53.28 52.92 50.37 51.68 44.51 38.96 33.59 36.95 37.61 38.90 39.07 39.63 40.74 39.19 40.19 41.32 42.57 45.05 41.67 36.03 33.61 34.87 36.86 39.02 40.84 40.12 41.52 38.22 34.66 35.30 40.11 43.81 49.03 50.01 49.90 49.60 50.03 54.79 55.27 56.24
52.60 53.09 53.31 53.52 53.76 53.41 52.16 51.84 48.42 42.41 36.14 36.03 40.43 38.33 38.96 37.13 37.81 38.54 40.08 45.30 46.11 43.90 38.53 34.59 29.59 28.79 32.90 35.37 37.53 41.76 41.56 41.97 38.20 38.85 37.50 38.22 44.22 50.08 51.44 52.96 44.23 52.98 54.86 57.42
53.28 53.49 53.56 53.79 53.99 53.59 52.71 51.36 48.88 43.46 37.24 39.46 40.71 38.86 38.27 41.36 39.98 37.49 39.19 40.45 40.54 42.89 35.70 31.89 32.08 31.68 38.40 33.01 34.70 35.38 36.96 37.97 35.49 37.18 36.50 41.77 45.27 49.34 53.65 44.11 44.66 51.57 51.81 53.69
53.24 53.49 53.76 53.76 53.95 53.94 53.12 50.64 50.72 44.93 39.86 40.88 43.68 44.07 41.34 41.52 41.53 37.49 39.97 38.49 39.80 38.46 34.40 34.36 33.62 34.27 35.44 35.16 37.69 35.53 36.32 35.61 35.14 36.21 36.60 34.50 47.96 48.15 42.95 48.88 51.56 51.59 50.78 51.33
53.20 53.35 53.53 53.72 53.88 53.90 53.50 48.82 51.83 50.56 42.89 42.69 46.91 46.78 47.76 46.58 46.03 42.29 42.40 39.68 39.05 39.64 35.51 35.62 35.49 33.29 37.13 34.86 31.39 40.08 33.76 37.39 33.83 37.51 37.03 45.91 48.44 47.46 49.97 50.45 49.09 48.95 49.35 50.06
52.99 53.26 53.74 53.92 54.00 53.96 53.46 50.66 49.11 46.99 42.81 42.86 43.44 44.68 48.83 50.69 49.72 49.94 40.81 42.08 42.32 40.72 42.79 38.30 36.61 33.15 36.65 31.93 33.91 35.23 39.16 42.35 36.27 37.57 41.27 43.29 46.85 47.36 48.14 48.06 48.68 49.55 49.66 50.01
52.92 53.53 53.98 53.98 53.98 53.55 53.61 50.18 49.55 48.55 44.50 39.06 42.35 50.77 47.63 50.71 50.00 48.87 48.07 46.23 46.08 44.34 42.75 37.15 37.15 34.67 38.37 34.09 35.89 34.75 38.58 40.06 36.28 36.69 40.40 41.62 45.63 45.18 46.41 47.16 48.26 49.91 51.26 51.16
53.25 53.55 53.68 53.67 53.32 53.37 54.28 52.06 50.59 50.74 45.62 39.29 40.86 46.21 48.18 49.07 48.55 47.24 47.25 45.36 43.56 41.85 37.96 36.86 34.72 38.01 36.97 37.15 37.01 35.96 39.40 36.68 34.68 33.77 39.04 38.85 40.09 43.77 45.63 44.77 45.70 47.74 49.36 50.12
53.13 53.52 53.82 53.37 53.16 53.26 52.60 45.89 49.55 51.47 49.97 43.39 38.43 47.91 46.90 47.89 47.19 45.49 44.66 44.65 43.19 41.59 37.68 35.78 37.33 40.69 37.11 32.71 31.68 38.17 40.87 41.63 40.82 38.53 42.78 42.76 43.07 44.49 45.97 45.18 46.28 47.30 48.98 50.17
53.53 53.54 53.20 53.39 53.10 52.55 48.62 46.48 50.22 51.92 52.07 43.80 41.04 44.49 47.03 48.24 46.11 44.88 44.11 43.01 40.71 39.48 36.68 34.74 35.24 36.36 38.20 32.76 30.90 38.16 40.88 42.72 43.72 45.08 46.28 43.98 43.82 42.29 46.60 47.96 48.70 49.69 50.52 50.69
53.09 52.85 52.72 51.55 50.85 49.32 49.43 50.48 50.84 51.54 47.26 44.87 41.44 43.03 45.27 48.59 44.62 42.29 43.93 40.27 40.56 39.48 37.81 37.99 35.28 36.46 34.54 30.35 35.98 41.34 42.63 44.28 47.71 48.81 49.86 45.65 46.19 46.91 47.92 49.31 49.53 47.82 47.24 48.28
52.46 53.24 52.91 52.81 50.38 50.85 50.24 52.01 50.55 52.19 47.53 43.10 44.02 40.80 41.13 47.53 45.90 43.87 42.04 41.28 37.38 39.80 36.55 38.00 36.41 32.03 31.85 37.11 40.69 41.83 43.10 42.56 45.34 48.23 48.47 48.19 46.47 47.13 48.99 49.18 48.96 46.86 46.96 47.98
52.88 51.79 51.80 50.21 51.52 52.12 51.89 49.60 47.09 47.26 47.41 47.46 43.69 46.08 43.78 47.92 45.23 43.88 42.98 41.01 40.04 38.35 42.10 42.85 38.33 37.11 43.58 43.40 43.72 44.47 45.58 44.95 45.57 44.03 44.50 46.78 45.91 45.89 47.24 48.00 47.70 47.36 47.68 49.01
51.99 52.74 52.88 52.03 52.33 51.41 48.83 48.83 47.66 49.61 42.71 48.96 44.64 47.33 46.34 50.34 44.30 42.95 46.44 43.76 42.93 36.17 40.04 40.15 36.52 35.84 41.74 45.18 43.48 44.92 46.15 47.07 45.78 46.65 47.39 47.28 48.50 48.36 48.17 49.16 50.06 49.75 49.16 48.55
52.78 52.17 58.22 54.31 51.06 50.14 48.61 46.73 49.41 47.73 44.26 50.81 49.32 48.63 50.08 51.33 49.78 44.19 46.54 43.22 44.02 36.86 43.39 37.30 33.30 39.98 44.32 45.06 44.39 44.02 44.37 46.93 46.69 46.65 46.03 46.89 47.53 47.69 47.74 47.79 47.90 48.80 48.65 48.76
57.49 54.83 53.99 52.28 50.88 41.40 43.40 41.78 44.68 44.45 49.01 49.29 50.05 49.50 51.39 50.71 51.84 47.98 46.08 42.09 39.97 45.67 37.46 32.84 39.10 43.35 45.11 45.43 44.98 43.77 44.30 44.64 47.20 47.11 46.64 46.53 46.21 47.40 47.69 47.01 47.77 47.26 46.49 47.32
53.18 52.11 39.25 46.68 46.48 46.15 46.38 45.01 45.39 48.57 48.07 48.25 50.55 50.98 49.79 51.31 47.85 46.38 42.12 44.10 41.61 34.65 32.14 33.62 40.35 43.95 45.23 45.87 46.17 44.40 42.58 43.39 43.52 47.00 46.75 45.81 45.47 45.57 46.85 47.69 47.33 47.51 46.26 46.37
53.49 51.89 40.12 47.70 50.21 49.61 49.23 49.65 48.95 49.37 50.10 49.90 49.42 50.59 49.30 46.79 44.90 44.13 42.27 38.84 34.53 35.61 35.61 40.53 44.01 45.25 45.67 45.08 45.25 45.28 43.99 43.52 43.17 43.62 46.36 46.66 46.02 45.32 45.51 46.46 46.81 46.90 46.10 46.73
54.49 53.78 49.11 50.93 48.14 47.55 48.42 48.45 47.58 50.23 50.17 50.76 51.53 47.36 43.83 42.05 41.88 38.82 37.02 35.47 33.81 38.16 43.07 45.48 46.59 46.19 46.40 46.13 46.44 46.08 46.07 45.19 44.12 44.14 45.42 47.27 47.34 46.40 46.27 47.10 46.99 46.49 46.62 45.47
52.24 50.32 53.44 51.99 50.42 48.49 48.83 49.44 48.62 51.94 49.09 45.83 46.70 41.51 41.16 44.63 38.86 37.16 40.62 38.22 39.83 41.56 45.37 46.90 48.30 46.55 46.81 47.55 47.24 47.43 46.66 45.42 44.96 44.87 46.36 46.44 48.72 47.66 45.84 43.92 44.76 45.41 45.94 46.11

GFSNW_sfc_wetblb_048.txt.gz
Wetbulb
54.11 54.36 54.22 53.48 52.37 51.25 47.36 39.33 34.61 46.66 49.31 36.92 34.99 31.96 36.88 40.93 40.06 41.73 39.02 38.64 36.94 32.99 32.87 31.17 32.26 34.49 37.44 43.10 43.06 37.17 40.25 37.47 33.67 40.45 47.66 48.49 52.44 43.73 43.47 40.73 35.63 36.16 36.43 41.18
54.16 54.48 53.89 53.08 51.97 51.57 46.72 38.09 37.45 45.88 43.45 29.56 30.90 34.95 38.13 40.60 39.39 39.70 38.34 36.63 37.09 35.30 31.05 29.12 34.87 36.54 41.76 43.39 41.47 38.75 40.12 37.63 31.25 36.51 39.52 44.27 42.89 48.68 43.89 41.21 39.47 36.89 39.07 41.76
54.30 54.32 53.70 52.67 52.09 51.86 44.17 38.54 33.07 37.24 38.11 35.66 31.39 32.92 34.93 36.03 42.19 39.95 39.77 37.65 36.14 34.24 30.83 33.05 32.21 34.86 40.31 41.95 40.85 44.04 43.47 37.85 33.97 30.63 35.79 40.96 41.17 45.59 45.72 44.37 40.00 39.57 40.88 42.34
54.00 53.98 53.42 52.89 52.12 51.63 44.24 37.86 33.40 35.70 31.13 33.28 34.72 35.03 35.21 35.62 34.99 39.80 40.46 36.53 35.93 33.28 28.64 30.04 31.34 35.05 37.45 39.55 41.77 40.52 38.96 32.80 33.71 35.98 39.11 41.73 42.55 46.56 46.91 43.38 43.69 41.84 43.49 43.37
53.86 54.20 53.62 53.29 52.46 51.47 42.24 36.16 35.73 35.93 33.86 36.60 35.14 35.71 35.21 35.76 37.02 37.34 35.60 35.11 36.81 36.40 30.03 31.78 29.68 33.34 34.87 34.80 37.57 36.74 37.98 31.36 32.76 31.95 41.83 44.19 43.95 49.04 48.80 46.70 46.58 44.96 44.44 44.30
53.78 53.76 53.69 53.06 52.31 50.82 40.72 41.45 41.68 40.62 38.21 36.14 35.30 34.10 35.68 36.12 38.47 39.97 40.64 38.44 36.73 34.55 35.70 37.86 37.56 38.95 39.29 38.64 36.77 34.99 34.64 31.42 29.34 30.40 42.47 45.54 41.86 43.93 48.00 47.34 46.98 46.17 43.70 46.09
52.94 52.67 53.01 53.40 52.80 52.00 48.52 43.90 45.23 38.31 34.05 36.47 36.41 37.25 38.32 38.85 38.49 36.93 39.70 39.95 36.92 40.30 43.47 41.74 38.44 38.17 38.54 38.94 38.60 39.00 34.42 31.98 30.21 31.11 38.17 34.88 43.40 47.18 47.52 47.84 48.12 48.74 50.95 52.60
52.46 53.09 53.07 53.40 53.56 53.03 49.34 48.68 44.72 39.34 33.93 36.89 37.66 38.36 39.10 39.30 39.53 38.47 38.85 40.81 42.46 43.47 38.08 30.72 29.47 31.20 34.07 36.84 38.86 37.60 38.72 35.86 28.03 32.00 36.38 42.19 43.33 44.35 43.88 41.91 43.71 47.80 48.95 54.88
53.05 53.21 53.28 53.73 53.87 53.44 50.88 47.11 48.77 42.19 36.71 36.05 39.90 38.73 39.06 36.87 37.18 37.64 38.08 42.32 42.58 40.89 33.74 30.80 27.84 27.86 33.16 33.08 36.45 39.82 38.57 38.80 32.55 32.88 34.86 34.52 39.76 45.79 49.01 49.65 38.41 47.68 48.58 48.97
52.78 53.10 53.78 54.02 53.98 53.73 51.36 47.85 48.73 43.57 37.61 39.64 40.64 38.77 38.21 40.74 39.43 37.08 38.81 38.81 37.56 39.18 35.21 31.48 31.25 31.65 36.50 31.88 32.59 32.28 32.88 34.86 33.69 34.74 36.78 39.44 42.14 45.79 50.27 38.72 40.80 47.57 48.18 48.78
52.75 53.29 53.48 53.81 53.99 53.97 52.15 49.55 49.54 45.27 40.02 40.87 43.38 43.79 41.46 41.28 40.98 36.73 39.63 36.17 35.93 33.44 31.33 32.34 31.71 32.25 34.14 33.46 35.77 34.44 34.00 33.32 31.72 33.34 34.79 33.05 44.32 44.65 38.73 41.42 45.90 46.80 47.40 47.93
52.69 53.23 53.54 53.93 54.20 53.91 53.24 48.47 51.37 49.91 43.80 43.17 45.61 46.20 47.01 46.15 44.97 42.09 42.33 38.74 37.03 36.23 33.08 33.33 34.11 32.19 34.48 33.13 30.13 37.65 31.74 35.26 34.02 34.23 35.61 43.57 44.93 45.53 47.49 46.12 44.37 44.15 45.47 47.72
53.00 53.54 54.01 54.30 54.05 54.01 53.26 49.64 48.94 47.07 42.77 41.66 43.13 44.63 49.17 50.21 49.29 49.31 40.44 41.65 42.14 38.77 38.29 34.93 34.96 32.24 33.98 29.53 31.78 34.35 37.19 39.53 34.51 32.95 37.37 39.12 41.59 44.97 44.88 44.77 44.14 44.63 45.99 46.90
53.09 53.83 54.07 54.03 53.74 53.68 51.51 47.85 48.98 46.64 41.94 34.32 39.58 49.67 44.77 49.76 47.29 48.28 48.01 45.34 44.72 43.72 38.67 33.04 31.77 32.41 36.57 32.06 32.76 33.02 37.14 37.85 35.94 34.83 36.40 39.77 42.76 43.81 43.97 44.80 45.92 45.67 46.29 46.30
53.52 53.68 53.93 53.54 53.66 53.58 52.72 49.61 47.63 45.85 41.96 34.25 36.65 41.97 42.98 45.36 45.20 44.88 45.17 43.70 42.55 41.07 37.86 34.84 33.20 37.19 35.03 32.83 32.50 34.98 39.14 36.39 34.44 33.83 39.09 39.20 39.55 42.55 45.10 44.83 44.82 45.80 45.31 45.30
53.33 53.67 53.64 53.35 53.58 53.42 51.82 45.27 47.72 47.89 45.31 37.99 34.24 42.36 45.44 46.51 44.52 43.86 42.18 42.68 41.15 40.08 36.99 35.08 36.67 39.32 36.17 30.77 29.30 38.04 39.54 41.12 43.78 42.79 43.79 42.63 43.06 43.98 45.70 46.09 46.43 47.04 47.00 46.53
53.42 53.14 52.92 53.13 52.84 48.60 46.28 43.51 47.20 49.69 46.79 41.01 36.48 39.87 44.63 46.05 42.66 42.24 42.24 41.76 39.44 39.18 37.09 35.82 36.10 36.50 37.27 32.00 29.95 36.55 42.67 43.19 44.38 46.51 47.61 43.76 45.16 44.97 47.57 46.36 47.78 49.32 49.81 48.71
52.94 52.78 52.26 51.19 50.69 49.02 45.58 46.40 49.63 48.63 43.53 40.97 39.48 40.78 43.73 47.40 43.21 40.30 40.12 38.03 39.77 38.64 37.02 38.18 35.42 36.30 33.97 31.63 37.04 41.48 43.04 43.50 43.97 45.82 47.38 45.99 47.37 47.21 46.95 47.95 47.97 48.04 48.62 48.61
52.87 52.80 52.90 49.78 46.98 45.51 46.09 52.15 50.94 47.00 43.85 40.83 41.91 39.23 39.72 45.57 44.30 42.50 39.75 37.36 36.12 39.23 36.54 38.08 37.59 32.03 31.62 34.66 39.00 40.80 44.20 42.19 42.88 45.48 46.04 47.16 46.94 47.31 47.66 47.48 47.83 46.82 46.06 47.28
52.47 49.44 47.20 45.72 46.91 53.28 50.93 45.45 44.56 45.23 42.00 40.84 39.84 44.14 42.22 46.77 44.12 42.53 41.16 40.61 39.02 36.82 37.44 40.02 37.22 37.10 42.36 42.82 42.59 42.88 45.22 45.37 45.01 42.60 42.23 44.34 44.88 45.06 45.78 46.15 46.57 45.96 46.13 47.14
47.31 46.41 46.71 46.88 53.02 46.88 46.08 44.04 39.49 39.92 40.27 41.84 41.05 44.08 43.52 47.92 42.46 41.90 44.32 41.28 38.71 31.83 35.02 34.81 36.10 35.47 40.84 44.56 42.93 42.50 44.01 46.91 45.97 45.63 45.70 45.88 46.25 45.15 44.48 45.10 45.74 45.79 45.81 46.77
49.28 48.15 50.49 47.94 45.31 43.98 41.82 40.41 41.79 39.95 38.39 43.76 42.97 43.83 46.15 45.38 45.43 41.78 44.40 40.38 39.28 31.69 38.89 33.94 32.74 39.71 42.33 42.17 43.29 42.30 41.34 45.43 45.85 46.63 45.63 45.86 46.50 46.43 45.95 45.28 44.85 44.97 45.37 45.92
50.34 48.77 47.09 46.79 43.76 36.52 39.53 35.98 37.03 36.97 40.57 41.28 43.94 43.69 45.10 46.26 45.17 43.08 42.05 37.71 36.30 38.89 32.85 32.71 36.59 40.47 41.81 42.02 42.01 42.38 42.05 43.42 46.13 45.61 45.80 45.76 45.71 46.38 44.94 44.41 45.19 45.06 44.94 45.76
47.63 47.63 35.12 40.25 38.97 40.59 40.20 37.81 37.97 41.49 40.90 41.84 42.04 46.61 43.61 44.60 42.61 39.67 38.32 37.67 36.31 30.95 29.80 31.34 36.25 39.06 40.84 41.66 42.58 41.56 40.64 41.20 42.83 46.13 45.01 44.82 45.01 44.56 45.04 44.93 44.57 43.68 42.99 43.96
48.53 45.55 37.28 43.60 44.26 42.47 42.59 42.92 41.80 42.85 43.06 42.04 41.94 44.37 41.26 38.91 38.11 37.23 37.32 34.14 30.56 32.47 31.21 34.32 38.43 39.96 40.16 40.59 42.03 41.54 41.60 40.49 40.31 40.96 45.19 45.59 45.31 44.93 44.80 45.23 44.82 44.13 43.68 43.34
49.76 45.66 41.99 43.44 41.46 40.81 41.43 41.45 40.52 42.80 42.99 43.09 42.17 39.01 37.09 35.62 34.83 34.07 31.98 30.58 23.55 31.60 35.95 38.69 39.67 40.42 40.50 40.35 41.62 42.10 42.75 39.52 40.02 41.14 42.74 44.93 45.16 44.74 45.05 45.83 45.53 45.65 45.01 43.97
46.93 46.43 45.70 43.96 42.27 41.40 41.79 41.89 41.86 43.50 40.97 37.77 38.40 35.73 34.72 36.69 33.56 32.52 34.45 31.43 32.91 34.73 37.20 39.83 40.84 41.40 40.56 41.56 41.93 42.06 41.53 40.00 39.09 40.37 42.88 42.08 45.29 42.76 41.04 39.63 40.26 41.49 44.54 45.28